Air Quality Table

TIMESTAMP NO2 O3 PM2.5 TEMP HUM AIRPRES WS WD NO
2022-11-26 09:00 10.92 µg/m3 67.82 µg/m3 1.23 µg/m3 16.06 °C N/A 1,002.19 mbar 2.65 m/s 237.78 Deg 1.06 µg/m3
2022-11-26 08:00 11.63 µg/m3 70.7 µg/m3 -0.22 µg/m3 18.74 °C N/A 1,002.32 mbar 2.97 m/s 193.38 Deg 1.37 µg/m3
2022-11-26 07:00 9.14 µg/m3 73.96 µg/m3 2.33 µg/m3 18.28 °C N/A 1,003.43 mbar 2.68 m/s 204.97 Deg 0.9 µg/m3
2022-11-26 06:00 8.38 µg/m3 71.65 µg/m3 0.29 µg/m3 17.6 °C N/A 1,003.61 mbar 1.93 m/s 201.25 Deg 0.69 µg/m3
2022-11-26 05:00 7.03 µg/m3 66.59 µg/m3 1.23 µg/m3 16.97 °C N/A 1,004.43 mbar 1.02 m/s 203.32 Deg 0.29 µg/m3
2022-11-26 04:00 6.35 µg/m3 67.5 µg/m3 2.75 µg/m3 16.7 °C N/A 1,005.45 mbar 0.81 m/s 210.84 Deg 0.24 µg/m3
2022-11-26 03:00 10.59 µg/m3 54.96 µg/m3 3.01 µg/m3 15.72 °C N/A 1,006.61 mbar 0.71 m/s 212.86 Deg 0.41 µg/m3
2022-11-26 02:00 14.28 µg/m3 45.81 µg/m3 3.18 µg/m3 15.31 °C N/A 1,006.99 mbar 0.41 m/s 273.11 Deg 0.27 µg/m3
2022-11-26 01:00 26.06 µg/m3 31.69 µg/m3 4.45 µg/m3 14.84 °C N/A 1,007.25 mbar 0.44 m/s 296.2 Deg 0.38 µg/m3
2022-11-26 00:00 33.45 µg/m3 27.36 µg/m3 10.14 µg/m3 14.51 °C N/A 1,007.92 mbar 0.56 m/s 281.48 Deg 1.8 µg/m3
2022-11-25 23:00 51.06 µg/m3 5.86 µg/m3 9.38 µg/m3 14.15 °C N/A 1,008.41 mbar 0.49 m/s 260.82 Deg 16.41 µg/m3
2022-11-25 22:00 55.93 µg/m3 1.89 µg/m3 9.89 µg/m3 14.14 °C N/A 1,008.84 mbar 0.27 m/s 259.91 Deg 14.44 µg/m3
2022-11-25 21:00 64.66 µg/m3 3.31 µg/m3 13.11 µg/m3 14.31 °C N/A 1,009.02 mbar 0.47 m/s 282.46 Deg 25.03 µg/m3
2022-11-25 20:00 67.33 µg/m3 1.84 µg/m3 9.38 µg/m3 14.83 °C N/A 1,008.71 mbar 0.57 m/s 277.78 Deg 30.91 µg/m3
2022-11-25 19:00 36.26 µg/m3 36.36 µg/m3 5.39 µg/m3 15.71 °C N/A 1,008.58 mbar 0.35 m/s 305.96 Deg 3.3 µg/m3
2022-11-25 18:00 26.85 µg/m3 49.25 µg/m3 4.62 µg/m3 16.44 °C N/A 1,008.57 mbar 0.43 m/s 311.74 Deg 0.33 µg/m3
2022-11-25 17:00 14.34 µg/m3 67.45 µg/m3 3.26 µg/m3 18.04 °C N/A 1,008.26 mbar 0.52 m/s 311.81 Deg 0.47 µg/m3
2022-11-25 16:00 10.4 µg/m3 74.97 µg/m3 3.52 µg/m3 19.19 °C N/A 1,008.24 mbar 0.99 m/s 338.08 Deg 1.03 µg/m3
2022-11-25 15:00 7.37 µg/m3 82.06 µg/m3 2.84 µg/m3 19.85 °C N/A 1,007.94 mbar 0.94 m/s 255.45 Deg 1.01 µg/m3
2022-11-25 14:00 4.98 µg/m3 81.78 µg/m3 4.54 µg/m3 20.06 °C N/A 1,008.53 mbar 0.93 m/s 334.04 Deg 0.79 µg/m3
2022-11-25 13:00 5.04 µg/m3 80.93 µg/m3 3.94 µg/m3 20.15 °C N/A 1,008.99 mbar 1.08 m/s 332.38 Deg 0.8 µg/m3
2022-11-25 12:00 7.6 µg/m3 74.81 µg/m3 3.26 µg/m3 19.32 °C N/A 1,009.29 mbar 1.37 m/s 8.39 Deg 1.45 µg/m3
2022-11-25 11:00 8.25 µg/m3 72.52 µg/m3 -0.22 µg/m3 19.17 °C N/A 1,009.65 mbar 1.33 m/s 181.47 Deg 1.49 µg/m3
2022-11-25 10:00 10.81 µg/m3 67.3 µg/m3 -0.22 µg/m3 18.53 °C N/A 1,009.76 mbar 1.07 m/s 254.48 Deg 1.6 µg/m3
2022-11-25 09:00 14.55 µg/m3 55.25 µg/m3 -0.22 µg/m3 17.5 °C N/A 1,009.41 mbar 0.66 m/s 316.77 Deg 1.6 µg/m3
2022-11-25 08:00 N/A 45.48 µg/m3 1.68 µg/m3 15.35 °C N/A 1,009.10 mbar 0.57 m/s 316.09 Deg N/A
2022-11-25 07:00 N/A 50.57 µg/m3 0.19 µg/m3 14.47 °C N/A 1,008.59 mbar 0.71 m/s 302.05 Deg N/A
2022-11-25 06:00 N/A 54.73 µg/m3 1.42 µg/m3 14.22 °C N/A 1,008.10 mbar 0.42 m/s 301.9 Deg N/A
2022-11-25 05:00 N/A 58.85 µg/m3 0.57 µg/m3 14.79 °C N/A 1,007.85 mbar 0.46 m/s 302.43 Deg N/A
2022-11-25 04:00 N/A 63.89 µg/m3 1.14 µg/m3 14.97 °C N/A 1,007.70 mbar 0.46 m/s 308.59 Deg N/A
2022-11-25 03:00 N/A 65.83 µg/m3 1.42 µg/m3 15.26 °C N/A 1,007.50 mbar 0.49 m/s 320.58 Deg N/A
2022-11-25 02:00 N/A 67.06 µg/m3 1.84 µg/m3 15.45 °C N/A 1,007.21 mbar 0.58 m/s 318.67 Deg N/A
2022-11-25 01:00 N/A 67.74 µg/m3 2.37 µg/m3 15.92 °C N/A 1,007.16 mbar 0.75 m/s 315.32 Deg N/A
2022-11-25 00:00 N/A 70.32 µg/m3 2.5 µg/m3 16.02 °C N/A 1,007.09 mbar 0.79 m/s 321.49 Deg N/A
2022-11-24 23:00 N/A 70.77 µg/m3 1.61 µg/m3 16.28 °C N/A 1,006.75 mbar 0.67 m/s 313.75 Deg N/A
2022-11-24 22:00 N/A 74.69 µg/m3 3.28 µg/m3 16.66 °C N/A 1,006.45 mbar 1.03 m/s 338.87 Deg N/A
2022-11-24 21:00 N/A 77.91 µg/m3 2.99 µg/m3 16.86 °C N/A 1,006.01 mbar 1.1 m/s 321.46 Deg N/A
2022-11-24 20:00 N/A 80.09 µg/m3 1.4 µg/m3 16.91 °C N/A 1,005.39 mbar 1.29 m/s 345.44 Deg N/A
2022-11-24 19:00 N/A 79.13 µg/m3 2.82 µg/m3 17.22 °C N/A 1,004.87 mbar 1.35 m/s 342.91 Deg N/A
2022-11-24 18:00 N/A 81.17 µg/m3 3.11 µg/m3 17.67 °C N/A 1,004.39 mbar 1.54 m/s 332.62 Deg N/A
2022-11-24 17:00 N/A 80.82 µg/m3 4.09 µg/m3 18.27 °C N/A 1,003.85 mbar 1.68 m/s 319.44 Deg N/A
2022-11-24 16:00 N/A 80.43 µg/m3 4.96 µg/m3 19.17 °C N/A 1,003.18 mbar 2.11 m/s 329.13 Deg N/A
2022-11-24 15:00 N/A 80.23 µg/m3 4.81 µg/m3 19.74 °C N/A 1,002.98 mbar 2.04 m/s 331.27 Deg N/A
2022-11-24 14:00 N/A 78.76 µg/m3 4.26 µg/m3 19.98 °C N/A 1,003.07 mbar 2.13 m/s 334.23 Deg N/A
2022-11-24 13:00 N/A 71.72 µg/m3 3.22 µg/m3 20.16 °C N/A 1,003.20 mbar 2.33 m/s 327.45 Deg N/A
2022-11-24 12:00 N/A 66.14 µg/m3 3.82 µg/m3 20.04 °C N/A 1,003.58 mbar 2.04 m/s 259.87 Deg N/A
2022-11-24 11:00 N/A 64.75 µg/m3 3.73 µg/m3 20.13 °C N/A 1,003.76 mbar 1.58 m/s 320.63 Deg N/A
2022-11-24 10:00 N/A 56.54 µg/m3 2.9 µg/m3 19.66 °C N/A 1,003.70 mbar 1.64 m/s 339 Deg N/A
2022-11-24 09:00 N/A 53.91 µg/m3 2.03 µg/m3 18.92 °C N/A 1,003.24 mbar 1.65 m/s 334.05 Deg N/A
2022-11-24 08:00 N/A 54.71 µg/m3 2.14 µg/m3 18.36 °C N/A 1,002.37 mbar 1.5 m/s 241.75 Deg N/A
2022-11-24 07:00 N/A 54.41 µg/m3 2.82 µg/m3 18.1 °C N/A 1,001.46 mbar 1.52 m/s 331.66 Deg N/A
2022-11-24 06:00 N/A 57.21 µg/m3 3.71 µg/m3 18.49 °C N/A 1,000.43 mbar 1.75 m/s 333.05 Deg N/A
2022-11-24 05:00 N/A 60.38 µg/m3 3.69 µg/m3 18.45 °C N/A 999.94 mbar 1.76 m/s 330.45 Deg N/A
2022-11-24 04:00 N/A 58.91 µg/m3 2.33 µg/m3 18.19 °C N/A 999.85 mbar 1.86 m/s 340.97 Deg N/A
2022-11-24 03:00 N/A 58.83 µg/m3 3.11 µg/m3 18.29 °C N/A 999.75 mbar 1.99 m/s 324.75 Deg N/A
2022-11-24 02:00 N/A 60.63 µg/m3 2.95 µg/m3 18.1 °C N/A 999.63 mbar 2.17 m/s 331.72 Deg N/A
2022-11-24 01:00 N/A 62.42 µg/m3 0.65 µg/m3 17.63 °C N/A 999.60 mbar 2.21 m/s 317.95 Deg N/A
2022-11-24 00:00 N/A 63.07 µg/m3 0.14 µg/m3 17.53 °C N/A 999.93 mbar 1.99 m/s 316.83 Deg N/A
2022-11-23 23:00 N/A 62.38 µg/m3 -1.07 µg/m3 17.04 °C N/A 999.89 mbar 1.6 m/s 326.58 Deg N/A
2022-11-23 22:00 N/A 64.34 µg/m3 1.5 µg/m3 16.58 °C N/A 1,000.03 mbar 2.15 m/s 311.35 Deg N/A
2022-11-23 21:00 N/A 70.3 µg/m3 2.05 µg/m3 17.77 °C N/A 999.75 mbar 2.58 m/s 320.32 Deg N/A
2022-11-23 20:00 N/A 70.89 µg/m3 1.46 µg/m3 18.65 °C N/A 999.25 mbar 2.06 m/s 319.12 Deg N/A
2022-11-23 19:00 N/A 77.27 µg/m3 0.36 µg/m3 18.59 °C N/A 999.01 mbar 2.52 m/s 303.9 Deg N/A
2022-11-23 18:00 N/A 78.57 µg/m3 0.99 µg/m3 18.16 °C N/A 998.78 mbar 2.48 m/s 309.38 Deg N/A
2022-11-23 17:00 N/A 75.87 µg/m3 1.31 µg/m3 17.87 °C N/A 998.44 mbar 2.36 m/s 309.48 Deg N/A
2022-11-23 16:00 N/A 77.27 µg/m3 3.09 µg/m3 18.17 °C N/A 997.92 mbar 2.5 m/s 310.8 Deg N/A
2022-11-23 15:00 N/A 79.11 µg/m3 2.29 µg/m3 19 °C N/A 997.56 mbar 2.95 m/s 315.03 Deg N/A
2022-11-23 14:00 N/A 79.06 µg/m3 2.78 µg/m3 18.88 °C N/A 997.85 mbar 2.4 m/s 309.7 Deg N/A
2022-11-23 13:00 N/A 78.59 µg/m3 3.03 µg/m3 19.35 °C N/A 997.98 mbar 2.96 m/s 301.9 Deg N/A
2022-11-23 12:00 N/A 76.16 µg/m3 2.12 µg/m3 18.75 °C N/A 998.51 mbar 2.6 m/s 300.95 Deg N/A
2022-11-23 11:00 N/A 73.36 µg/m3 3.54 µg/m3 18.68 °C N/A 998.87 mbar 2.56 m/s 310.18 Deg N/A
2022-11-23 10:00 N/A 73.99 µg/m3 1.95 µg/m3 18.37 °C N/A 999.10 mbar 2.6 m/s 307.7 Deg N/A
2022-11-23 09:00 N/A 74.26 µg/m3 2.18 µg/m3 17.41 °C N/A 998.89 mbar 2.23 m/s 325.35 Deg N/A
2022-11-23 08:00 N/A 76.87 µg/m3 2.61 µg/m3 16.51 °C N/A 998.43 mbar 2.13 m/s 315.28 Deg N/A
2022-11-23 07:00 N/A 78.1 µg/m3 1.2 µg/m3 16.14 °C N/A 998.26 mbar 1.76 m/s 317.84 Deg N/A
2022-11-23 06:00 N/A 81.34 µg/m3 0.27 µg/m3 16.03 °C N/A 998.25 mbar 1.91 m/s 303.83 Deg N/A
2022-11-23 05:00 N/A 80.84 µg/m3 0.82 µg/m3 15.96 °C N/A 998.46 mbar 1.62 m/s 315.4 Deg N/A
2022-11-23 04:00 N/A 79.09 µg/m3 1.76 µg/m3 15.74 °C N/A 998.71 mbar 2.11 m/s 306.37 Deg N/A
2022-11-23 03:00 N/A 77.05 µg/m3 0.4 µg/m3 14.79 °C N/A 999.08 mbar 1.42 m/s 308.59 Deg N/A
2022-11-23 02:00 N/A 76.48 µg/m3 -2.23 µg/m3 14.46 °C N/A 999.38 mbar 1.62 m/s 310.5 Deg N/A
2022-11-23 01:00 N/A 81.54 µg/m3 0.57 µg/m3 14.1 °C N/A 999.97 mbar 2.42 m/s 309.37 Deg N/A
2022-11-23 00:00 N/A 81.65 µg/m3 2.95 µg/m3 16.46 °C N/A 999.96 mbar 3.13 m/s 295.58 Deg N/A
2022-11-22 23:00 N/A 82.52 µg/m3 2.07 µg/m3 16.74 °C N/A 999.85 mbar 2.6 m/s 296.53 Deg N/A
2022-11-22 22:00 N/A 83.49 µg/m3 1.97 µg/m3 16.82 °C N/A 999.87 mbar 2.53 m/s 307.02 Deg N/A
2022-11-22 21:00 N/A 84.53 µg/m3 1.95 µg/m3 16.93 °C N/A 999.45 mbar 2.63 m/s 313.88 Deg N/A
2022-11-22 20:00 N/A 83.59 µg/m3 1.46 µg/m3 16.95 °C N/A 999.20 mbar 2.34 m/s 311.82 Deg N/A
2022-11-22 19:00 N/A 83.25 µg/m3 2.97 µg/m3 16.86 °C N/A 998.98 mbar 2.49 m/s 319.83 Deg N/A
2022-11-22 18:00 N/A 81.96 µg/m3 1.42 µg/m3 16.8 °C N/A 998.75 mbar 1.99 m/s 319.64 Deg N/A
2022-11-22 17:00 N/A 80.8 µg/m3 3.01 µg/m3 16.7 °C N/A 998.11 mbar 2.23 m/s 312.89 Deg N/A
2022-11-22 16:00 N/A 81.67 µg/m3 5.24 µg/m3 17.6 °C N/A 997.54 mbar 2.54 m/s 325.6 Deg N/A
2022-11-22 15:00 N/A 79.62 µg/m3 7 µg/m3 18.43 °C N/A 996.82 mbar 3.4 m/s 305.99 Deg N/A
2022-11-22 14:00 N/A 72.93 µg/m3 9.14 µg/m3 17.67 °C N/A 997.02 mbar 2.95 m/s 302.58 Deg N/A
2022-11-22 13:00 N/A 79.79 µg/m3 11.37 µg/m3 19.31 °C N/A 996.93 mbar 4.56 m/s 296.55 Deg N/A
2022-11-22 12:00 N/A 83.31 µg/m3 9.76 µg/m3 19.97 °C N/A 997.28 mbar 5.55 m/s 279.8 Deg N/A
2022-11-22 11:00 N/A 82.75 µg/m3 9.23 µg/m3 19.47 °C N/A 997.58 mbar 5.9 m/s 276.13 Deg N/A
2022-11-22 10:00 N/A 82.69 µg/m3 6.11 µg/m3 19.14 °C N/A 997.25 mbar 6.03 m/s 265.07 Deg N/A
2022-11-22 09:00 N/A 81.59 µg/m3 4.47 µg/m3 18.71 °C N/A 997.36 mbar 6.2 m/s 264.65 Deg N/A
2022-11-22 08:00 N/A 81.95 µg/m3 1.93 µg/m3 18.03 °C N/A 997.66 mbar 5.67 m/s 268.85 Deg N/A
2022-11-22 07:00 N/A 84.39 µg/m3 2.54 µg/m3 17.71 °C N/A 998.43 mbar 5.62 m/s 268.53 Deg N/A
2022-11-22 06:00 N/A 88.54 µg/m3 2.24 µg/m3 17.61 °C N/A 998.93 mbar 5.02 m/s 258.18 Deg N/A
2022-11-22 05:00 N/A 90.31 µg/m3 2.95 µg/m3 17.74 °C N/A 999.71 mbar 4.6 m/s 260.68 Deg N/A
2022-11-22 04:00 N/A 91.88 µg/m3 3.14 µg/m3 17.95 °C N/A 1,001.05 mbar 3.99 m/s 264.18 Deg N/A
2022-11-22 03:00 N/A 90.4 µg/m3 2.33 µg/m3 18.36 °C N/A 1,002.06 mbar 3.42 m/s 279.43 Deg N/A
2022-11-22 02:00 N/A 89.48 µg/m3 0.16 µg/m3 18.17 °C N/A 1,002.58 mbar 2.8 m/s 262.5 Deg N/A
2022-11-22 01:00 N/A 88.02 µg/m3 -0.09 µg/m3 17.92 °C N/A 1,003.62 mbar 2.71 m/s 276.43 Deg N/A
2022-11-22 00:00 N/A 88 µg/m3 0.23 µg/m3 17.43 °C N/A 1,004.30 mbar 2.39 m/s 273.28 Deg N/A
2022-11-21 23:00 N/A 84.27 µg/m3 -0.73 µg/m3 17.24 °C N/A 1,004.74 mbar 2.01 m/s 274.32 Deg N/A
2022-11-21 22:00 N/A 84.23 µg/m3 -0.18 µg/m3 17.38 °C N/A 1,005.01 mbar 2.1 m/s 275.95 Deg N/A
2022-11-21 21:00 N/A 83.63 µg/m3 1.65 µg/m3 17.29 °C N/A 1,004.88 mbar 2.08 m/s 279.7 Deg N/A
2022-11-21 20:00 N/A 80.65 µg/m3 1.2 µg/m3 17.31 °C N/A 1,004.92 mbar 1.43 m/s 296.18 Deg N/A
2022-11-21 19:00 N/A 80.52 µg/m3 0.12 µg/m3 17.41 °C N/A 1,005.18 mbar 1.88 m/s 312.17 Deg N/A
2022-11-21 18:00 N/A 80.85 µg/m3 1.14 µg/m3 17.31 °C N/A 1,005.09 mbar 1.43 m/s 313.56 Deg N/A
2022-11-21 17:00 N/A 81.85 µg/m3 1.06 µg/m3 17.79 °C N/A 1,004.82 mbar 1.63 m/s 322.83 Deg N/A
2022-11-21 16:00 N/A 82.36 µg/m3 1.65 µg/m3 18.38 °C N/A 1,004.71 mbar 1.84 m/s 309.85 Deg N/A
2022-11-21 15:00 N/A 77.74 µg/m3 -0.2 µg/m3 17.82 °C N/A 1,004.87 mbar 2.09 m/s 326.55 Deg N/A
2022-11-21 14:00 N/A 77.94 µg/m3 1.97 µg/m3 18.32 °C N/A 1,005.00 mbar 1.82 m/s 322.9 Deg N/A
2022-11-21 13:00 N/A 78.74 µg/m3 0.76 µg/m3 17.79 °C N/A 1,005.27 mbar 1.8 m/s 325.3 Deg N/A
2022-11-21 12:00 N/A 75.47 µg/m3 0.04 µg/m3 16.83 °C N/A 1,006.06 mbar 1.37 m/s 328.59 Deg N/A
2022-11-21 11:00 N/A 74.43 µg/m3 3.35 µg/m3 16.66 °C N/A 1,006.32 mbar 1.28 m/s 327.26 Deg N/A
2022-11-21 10:00 N/A 76.63 µg/m3 3.43 µg/m3 17.87 °C N/A 1,005.90 mbar 1.8 m/s 327.1 Deg N/A
2022-11-21 09:00 N/A 75.33 µg/m3 4.43 µg/m3 17.2 °C N/A 1,005.51 mbar 2.19 m/s 338.67 Deg N/A
2022-11-21 08:00 N/A 74.22 µg/m3 2.07 µg/m3 16.39 °C N/A 1,005.03 mbar 1.67 m/s 336.52 Deg N/A
2022-11-21 07:00 N/A 74.83 µg/m3 1.52 µg/m3 15.57 °C N/A 1,004.50 mbar 1.72 m/s 336.7 Deg N/A
2022-11-21 06:00 N/A 74.29 µg/m3 -0.13 µg/m3 14.96 °C N/A 1,003.94 mbar 1.42 m/s 341.12 Deg N/A
2022-11-21 05:00 N/A 73.05 µg/m3 -0.35 µg/m3 15.5 °C N/A 1,003.46 mbar 1.14 m/s 322.84 Deg N/A
2022-11-21 04:00 N/A 78.18 µg/m3 0.86 µg/m3 15.69 °C N/A 1,003.16 mbar 1.38 m/s 324.55 Deg N/A
2022-11-21 03:00 N/A 82.4 µg/m3 0.14 µg/m3 16.04 °C N/A 1,002.97 mbar 1.73 m/s 312.19 Deg N/A
2022-11-21 02:00 N/A 84.8 µg/m3 0.16 µg/m3 16.08 °C N/A 1,003.03 mbar 2.14 m/s 316.28 Deg N/A
2022-11-21 01:00 N/A 80.69 µg/m3 0.74 µg/m3 15.92 °C N/A 1,003.19 mbar 1.67 m/s 326.15 Deg N/A
2022-11-21 00:00 N/A 82.75 µg/m3 1.46 µg/m3 16.78 °C N/A 1,003.06 mbar 2.17 m/s 321.44 Deg N/A
2022-11-20 23:00 N/A 79.93 µg/m3 1.46 µg/m3 16.63 °C N/A 1,002.75 mbar 1.65 m/s 315 Deg N/A
2022-11-20 22:00 N/A 79.22 µg/m3 0.7 µg/m3 17.19 °C N/A 1,002.14 mbar 1.82 m/s 318.45 Deg N/A
2022-11-20 21:00 N/A 80.82 µg/m3 -0.43 µg/m3 17.01 °C N/A 1,001.42 mbar 1.93 m/s 320.77 Deg N/A
2022-11-20 20:00 N/A 81.97 µg/m3 -0.35 µg/m3 16.77 °C N/A 1,000.79 mbar 1.96 m/s 327.23 Deg N/A
2022-11-20 19:00 N/A 78.73 µg/m3 -0.22 µg/m3 16.67 °C N/A 1,000.13 mbar 1.71 m/s 322.87 Deg N/A
2022-11-20 18:00 N/A 78.22 µg/m3 -0.28 µg/m3 15.66 °C N/A 999.30 mbar 1.52 m/s 323.42 Deg N/A
2022-11-20 17:00 N/A 83.07 µg/m3 -0.49 µg/m3 15.75 °C N/A 998.69 mbar 2 m/s 303.47 Deg N/A
2022-11-20 16:00 N/A 82.27 µg/m3 0.84 µg/m3 15.96 °C N/A 998.01 mbar 2.17 m/s 302.47 Deg N/A
2022-11-20 15:00 N/A 80.91 µg/m3 0.42 µg/m3 16.55 °C N/A 997.59 mbar 2.43 m/s 307.92 Deg N/A
2022-11-20 14:00 N/A 77.25 µg/m3 -0.45 µg/m3 16.04 °C N/A 997.78 mbar 1.87 m/s 293.33 Deg N/A
2022-11-20 13:00 N/A 81.25 µg/m3 -1.15 µg/m3 16.38 °C N/A 998.01 mbar 1.68 m/s 315.02 Deg N/A
2022-11-20 12:00 N/A 85.74 µg/m3 -2.98 µg/m3 13.16 °C N/A 998.76 mbar 2.46 m/s 308.35 Deg N/A
2022-11-20 11:00 N/A 78.52 µg/m3 1.76 µg/m3 16.44 °C N/A 997.94 mbar 2.62 m/s 327.92 Deg N/A
2022-11-20 10:00 N/A 74.99 µg/m3 22.56 µg/m3 17.4 °C N/A 997.39 mbar 1.61 m/s 334.05 Deg N/A
2022-11-20 09:00 N/A 77.32 µg/m3 46.1 µg/m3 19.4 °C N/A 996.09 mbar 3.78 m/s 282.2 Deg N/A
2022-11-20 08:00 N/A 73.68 µg/m3 18.84 µg/m3 19.16 °C N/A 995.71 mbar 4.2 m/s 236.07 Deg N/A
2022-11-20 07:00 N/A 28.07 µg/m3 4.66 µg/m3 16.48 °C N/A 995.90 mbar 0.91 m/s 232.98 Deg N/A
2022-11-20 06:00 N/A 35.93 µg/m3 2.14 µg/m3 16.75 °C N/A 996.62 mbar 0.48 m/s 252.65 Deg N/A
2022-11-20 05:00 N/A 61.54 µg/m3 3.05 µg/m3 17.39 °C N/A 997.18 mbar 0.58 m/s 175.26 Deg N/A
2022-11-20 04:00 N/A 56.63 µg/m3 1.48 µg/m3 17.66 °C N/A 997.35 mbar 0.5 m/s 313.56 Deg N/A
2022-11-20 03:00 N/A 61.14 µg/m3 0.99 µg/m3 17.93 °C N/A 997.68 mbar 0.6 m/s 340.9 Deg N/A
2022-11-20 02:00 N/A 64.29 µg/m3 0.16 µg/m3 18.28 °C N/A 998.26 mbar 0.77 m/s 338.55 Deg N/A
2022-11-20 01:00 N/A 65.51 µg/m3 3.62 µg/m3 18.68 °C N/A 998.34 mbar 0.84 m/s 265.03 Deg N/A
2022-11-20 00:00 N/A 64.65 µg/m3 23.66 µg/m3 19.35 °C N/A 998.66 mbar 0.79 m/s 256.86 Deg N/A
2022-11-19 23:00 N/A 59.19 µg/m3 15.66 µg/m3 20.74 °C N/A 998.47 mbar 1.4 m/s 246.54 Deg N/A
2022-11-19 22:00 N/A 60.48 µg/m3 20.84 µg/m3 21.55 °C N/A 998.27 mbar 1.9 m/s 304.01 Deg N/A
2022-11-19 21:00 N/A 63.7 µg/m3 22.17 µg/m3 22.11 °C N/A 997.79 mbar 2.83 m/s 269.83 Deg N/A
2022-11-19 20:00 N/A 68.19 µg/m3 14.83 µg/m3 22.18 °C N/A 997.49 mbar 3 m/s 257.02 Deg N/A
2022-11-19 19:00 N/A 82.58 µg/m3 8.34 µg/m3 22.06 °C N/A 997.15 mbar 2.56 m/s 244.08 Deg N/A
2022-11-19 18:00 N/A 82.47 µg/m3 6.53 µg/m3 22.03 °C N/A 996.88 mbar 2.24 m/s 228.12 Deg N/A
2022-11-19 17:00 N/A 77.73 µg/m3 5.13 µg/m3 22.03 °C N/A 996.75 mbar 2.54 m/s 224.3 Deg N/A
2022-11-19 16:00 N/A 69.81 µg/m3 5.34 µg/m3 22.62 °C N/A 996.66 mbar 2.62 m/s 221.93 Deg N/A
2022-11-19 15:00 N/A 63.62 µg/m3 5.24 µg/m3 23.14 °C N/A 997.09 mbar 2.52 m/s 236.17 Deg N/A
2022-11-19 14:00 N/A 62.7 µg/m3 5.64 µg/m3 23.4 °C N/A 997.23 mbar 2.81 m/s 242.55 Deg N/A
2022-11-19 13:00 N/A 63.71 µg/m3 8.61 µg/m3 23.64 °C N/A 997.39 mbar 3.27 m/s 241.48 Deg N/A
2022-11-19 12:00 N/A 75.84 µg/m3 11.77 µg/m3 23.55 °C N/A 997.88 mbar 3.06 m/s 250.08 Deg N/A
2022-11-19 11:00 N/A 69.46 µg/m3 14.75 µg/m3 23.32 °C N/A 998.36 mbar 3.28 m/s 245.65 Deg N/A
2022-11-19 10:00 N/A 63.04 µg/m3 13.01 µg/m3 22.96 °C N/A 998.38 mbar 2.8 m/s 236.76 Deg N/A
2022-11-19 09:00 N/A 68.76 µg/m3 9.76 µg/m3 22.23 °C N/A 998.16 mbar 2.73 m/s 215.4 Deg N/A
2022-11-19 08:00 N/A 65.78 µg/m3 7.55 µg/m3 21.24 °C N/A 998.15 mbar 2.16 m/s 224.72 Deg N/A
2022-11-19 07:00 N/A 60.23 µg/m3 9.5 µg/m3 20.45 °C N/A 998.19 mbar 1.99 m/s 220.82 Deg N/A
2022-11-19 06:00 N/A 54.67 µg/m3 11.39 µg/m3 20.17 °C N/A 998.14 mbar 1.32 m/s 216.64 Deg N/A
2022-11-19 05:00 N/A 61.93 µg/m3 9.84 µg/m3 20.4 °C N/A 998.13 mbar 1.45 m/s 230.38 Deg N/A
2022-11-19 04:00 N/A 64.11 µg/m3 8.51 µg/m3 20.16 °C N/A 998.45 mbar 1.44 m/s 214.42 Deg N/A
2022-11-19 03:00 4.32 µg/m3 61.45 µg/m3 5.73 µg/m3 19.67 °C N/A 998.68 mbar 1.14 m/s 214.78 Deg 0.22 µg/m3
2022-11-19 02:00 4.32 µg/m3 56.65 µg/m3 7.36 µg/m3 19.38 °C N/A 999.02 mbar 0.81 m/s 242.1 Deg -0.22 µg/m3
2022-11-19 01:00 21.21 µg/m3 25.79 µg/m3 8.19 µg/m3 18.6 °C N/A 999.24 mbar 0.49 m/s 258.8 Deg -0.08 µg/m3
2022-11-19 00:00 23.72 µg/m3 25.41 µg/m3 11.88 µg/m3 18.53 °C N/A 999.61 mbar 0.34 m/s 239.32 Deg 0.6 µg/m3
2022-11-18 23:00 33.27 µg/m3 19.98 µg/m3 8.59 µg/m3 19.21 °C N/A 999.75 mbar 0.32 m/s 169.4 Deg 8.27 µg/m3
2022-11-18 22:00 5.76 µg/m3 60.99 µg/m3 5.17 µg/m3 20.24 °C N/A 999.80 mbar 0.69 m/s 285.21 Deg -0.09 µg/m3
2022-11-18 21:00 5.29 µg/m3 67.34 µg/m3 6.38 µg/m3 20.63 °C N/A 999.81 mbar 1.3 m/s 290.72 Deg 0.05 µg/m3
2022-11-18 20:00 6.86 µg/m3 63.56 µg/m3 6.74 µg/m3 20.7 °C N/A 999.68 mbar 1.63 m/s 297.94 Deg 0.08 µg/m3
2022-11-18 19:00 8.91 µg/m3 59.91 µg/m3 7.49 µg/m3 21 °C N/A 999.32 mbar 1.74 m/s 286.4 Deg 0.17 µg/m3
2022-11-18 18:00 11.11 µg/m3 59.29 µg/m3 6.94 µg/m3 21.16 °C N/A 998.88 mbar 1.57 m/s 291.45 Deg -0.04 µg/m3
2022-11-18 17:00 9.27 µg/m3 65.93 µg/m3 7.17 µg/m3 21.8 °C N/A 998.58 mbar 2.16 m/s 287.35 Deg 0.33 µg/m3
2022-11-18 16:00 6.49 µg/m3 69.34 µg/m3 6.26 µg/m3 22.78 °C N/A 998.34 mbar 2.24 m/s 291.27 Deg 0.68 µg/m3
2022-11-18 15:00 5.42 µg/m3 74.41 µg/m3 5.9 µg/m3 23.26 °C N/A 998.40 mbar 2.75 m/s 288.33 Deg 0.64 µg/m3
2022-11-18 14:00 4.75 µg/m3 74.61 µg/m3 6.15 µg/m3 23.58 °C N/A 998.35 mbar 2.62 m/s 294.9 Deg 0.61 µg/m3
2022-11-18 13:00 6.27 µg/m3 72.53 µg/m3 6.68 µg/m3 23.82 °C N/A 998.53 mbar 2.32 m/s 307.53 Deg 1.37 µg/m3
2022-11-18 12:00 6.24 µg/m3 72.55 µg/m3 6.7 µg/m3 23.58 °C N/A 999.01 mbar 3.02 m/s 306.88 Deg 0.95 µg/m3
2022-11-18 11:00 6.72 µg/m3 70.63 µg/m3 4.56 µg/m3 23.38 °C N/A 999.45 mbar 2.72 m/s 302.35 Deg 1.3 µg/m3
2022-11-18 10:00 6.39 µg/m3 73.86 µg/m3 3.73 µg/m3 22.61 °C N/A 999.28 mbar 2.94 m/s 289.4 Deg 0.87 µg/m3
2022-11-18 09:00 8.33 µg/m3 68.56 µg/m3 2.35 µg/m3 22 °C N/A 999.13 mbar 2.24 m/s 288.67 Deg 0.96 µg/m3
2022-11-18 08:00 10.78 µg/m3 63.63 µg/m3 2.67 µg/m3 20.95 °C N/A 998.68 mbar 1.97 m/s 289.63 Deg 0.46 µg/m3
2022-11-18 07:00 7.8 µg/m3 62.66 µg/m3 2.92 µg/m3 20.3 °C N/A 998.35 mbar 1.99 m/s 284.22 Deg 0.01 µg/m3
2022-11-18 06:00 4.04 µg/m3 62.08 µg/m3 1.65 µg/m3 20.09 °C N/A 998.12 mbar 1.98 m/s 300.7 Deg -0.08 µg/m3
2022-11-18 05:00 3.54 µg/m3 66.17 µg/m3 2.5 µg/m3 20.14 °C N/A 998.11 mbar 1.39 m/s 308.42 Deg -0.04 µg/m3
2022-11-18 04:00 2.4 µg/m3 73.15 µg/m3 1.46 µg/m3 20.42 °C N/A 998.06 mbar 2.4 m/s 300.07 Deg -0.09 µg/m3
2022-11-18 03:00 3.13 µg/m3 79.49 µg/m3 1.86 µg/m3 20.18 °C N/A 998.32 mbar 2.44 m/s 292.03 Deg 0.07 µg/m3
2022-11-18 02:00 2.36 µg/m3 77.88 µg/m3 1.9 µg/m3 19.85 °C N/A 998.47 mbar 1.76 m/s 293.63 Deg -0.09 µg/m3
2022-11-18 01:00 2.9 µg/m3 72.52 µg/m3 0.72 µg/m3 19.36 °C N/A 998.79 mbar 1.24 m/s 296.85 Deg 0 µg/m3
2022-11-18 00:00 5.95 µg/m3 66.48 µg/m3 0.53 µg/m3 19.03 °C N/A 999.12 mbar 0.82 m/s 299.22 Deg -0.14 µg/m3
2022-11-17 23:00 4.42 µg/m3 68.45 µg/m3 1.48 µg/m3 19.15 °C N/A 999.27 mbar 0.76 m/s 306.52 Deg -0.1 µg/m3
2022-11-17 22:00 4.76 µg/m3 70.44 µg/m3 2.71 µg/m3 19.5 °C N/A 999.18 mbar 0.96 m/s 304 Deg 0.02 µg/m3
2022-11-17 21:00 10.77 µg/m3 69.35 µg/m3 2.92 µg/m3 19.46 °C N/A 998.97 mbar 1.02 m/s 307.44 Deg -0.07 µg/m3
2022-11-17 20:00 15.91 µg/m3 63.34 µg/m3 4.03 µg/m3 19.39 °C N/A 998.74 mbar 0.81 m/s 310.5 Deg 0.12 µg/m3
2022-11-17 19:00 17.53 µg/m3 61.45 µg/m3 3.09 µg/m3 19.68 °C N/A 998.32 mbar 0.72 m/s 316.78 Deg 0.01 µg/m3
2022-11-17 18:00 11.4 µg/m3 64.1 µg/m3 2.92 µg/m3 20.01 °C N/A 997.88 mbar 1.09 m/s 303.23 Deg -0.07 µg/m3
2022-11-17 17:00 14.12 µg/m3 62.5 µg/m3 5.05 µg/m3 20.27 °C N/A 997.49 mbar 1.02 m/s 314.97 Deg 0.22 µg/m3
2022-11-17 16:00 9.35 µg/m3 67.72 µg/m3 4.71 µg/m3 21.01 °C N/A 997.17 mbar 1.58 m/s 324.28 Deg 1.42 µg/m3
2022-11-17 15:00 6.91 µg/m3 70.29 µg/m3 3.69 µg/m3 21.45 °C N/A 996.92 mbar 1.8 m/s 323.3 Deg 0.68 µg/m3
2022-11-17 14:00 8.72 µg/m3 63.4 µg/m3 3.52 µg/m3 21.01 °C N/A 997.20 mbar 1.8 m/s 293.55 Deg 1.5 µg/m3
2022-11-17 13:00 8.66 µg/m3 70.88 µg/m3 7.76 µg/m3 19.99 °C N/A 997.41 mbar 2.17 m/s 304.15 Deg 0.67 µg/m3
2022-11-17 12:00 6.64 µg/m3 88.1 µg/m3 8.44 µg/m3 22.77 °C N/A 997.31 mbar 2.48 m/s 277.45 Deg 0.53 µg/m3
2022-11-17 11:00 6.39 µg/m3 83 µg/m3 9.04 µg/m3 22.6 °C N/A 997.74 mbar 1.93 m/s 287.45 Deg 0.49 µg/m3
2022-11-17 10:00 12.29 µg/m3 72.93 µg/m3 18.38 µg/m3 22.12 °C N/A 997.72 mbar 1.44 m/s 296.62 Deg 1.88 µg/m3
2022-11-17 09:00 36.1 µg/m3 40.06 µg/m3 24.83 µg/m3 20.28 °C N/A 997.59 mbar 0.9 m/s 285.12 Deg 7.93 µg/m3
2022-11-17 08:00 65.85 µg/m3 7.62 µg/m3 12.52 µg/m3 18.38 °C N/A 997.31 mbar 0.58 m/s 292.18 Deg 28.88 µg/m3
2022-11-17 07:00 55.77 µg/m3 11.04 µg/m3 6.83 µg/m3 17.03 °C N/A 996.86 mbar 0.73 m/s 278.4 Deg 27.91 µg/m3
2022-11-17 06:00 16.73 µg/m3 41.61 µg/m3 6.49 µg/m3 17.27 °C N/A 996.66 mbar 0.66 m/s 288.47 Deg -0.23 µg/m3
2022-11-17 05:00 10.15 µg/m3 46.3 µg/m3 5.05 µg/m3 17.51 °C N/A 996.73 mbar 0.69 m/s 295.91 Deg -0.16 µg/m3
2022-11-17 04:00 7.93 µg/m3 52.51 µg/m3 5.81 µg/m3 17.7 °C N/A 996.91 mbar 0.77 m/s 298.27 Deg -0.17 µg/m3
2022-11-17 03:00 8.87 µg/m3 46.08 µg/m3 5.47 µg/m3 17.63 °C N/A 997.05 mbar 0.52 m/s 303.28 Deg -0.04 µg/m3
2022-11-17 02:00 5.22 µg/m3 49.31 µg/m3 4.71 µg/m3 17.89 °C N/A 997.10 mbar 0.46 m/s 293.27 Deg -0.04 µg/m3
2022-11-17 01:00 4.43 µg/m3 57.18 µg/m3 4.96 µg/m3 18.55 °C N/A 997.20 mbar 0.69 m/s 299.32 Deg -0.03 µg/m3
2022-11-17 00:00 5.16 µg/m3 60.43 µg/m3 5.3 µg/m3 18.8 °C N/A 997.55 mbar 1.01 m/s 295.05 Deg -0.19 µg/m3
2022-11-16 23:00 5.63 µg/m3 59.68 µg/m3 9.55 µg/m3 18.59 °C N/A 997.74 mbar 0.69 m/s 289.59 Deg -0.23 µg/m3
2022-11-16 22:00 22.71 µg/m3 37.38 µg/m3 10.14 µg/m3 18.26 °C N/A 998.03 mbar 0.38 m/s 268.05 Deg -0.14 µg/m3
2022-11-16 21:00 33.32 µg/m3 26.42 µg/m3 7.85 µg/m3 18.58 °C N/A 998.07 mbar 0.4 m/s 244.72 Deg 1.8 µg/m3
2022-11-16 20:00 25.28 µg/m3 45.44 µg/m3 8.36 µg/m3 19.25 °C N/A 997.92 mbar 0.54 m/s 250.93 Deg 1.18 µg/m3
2022-11-16 19:00 24.05 µg/m3 42.88 µg/m3 7.51 µg/m3 19.41 °C N/A 997.93 mbar 0.32 m/s 275.47 Deg -0.17 µg/m3
2022-11-16 18:00 21.72 µg/m3 51.9 µg/m3 9.29 µg/m3 20.17 °C N/A 997.89 mbar 0.6 m/s 291.56 Deg 0.04 µg/m3
2022-11-16 17:00 11.35 µg/m3 70.05 µg/m3 10.31 µg/m3 21.25 °C N/A 997.63 mbar 1.37 m/s 292.55 Deg 0.11 µg/m3
2022-11-16 16:00 9.46 µg/m3 75.91 µg/m3 10.48 µg/m3 22.48 °C N/A 997.66 mbar 1.75 m/s 275.51 Deg 0.68 µg/m3
2022-11-16 15:00 8.97 µg/m3 75.76 µg/m3 13.96 µg/m3 22.95 °C N/A 997.83 mbar 2.16 m/s 275.08 Deg 1.34 µg/m3
2022-11-16 14:00 7.71 µg/m3 73.9 µg/m3 13.54 µg/m3 23.26 °C N/A 998.28 mbar 2.34 m/s 277.92 Deg 1.18 µg/m3
2022-11-16 13:00 7.59 µg/m3 69.07 µg/m3 12.94 µg/m3 23.41 °C N/A 998.93 mbar 2.59 m/s 264.78 Deg 1.36 µg/m3
2022-11-16 12:00 12.05 µg/m3 73.2 µg/m3 11.33 µg/m3 23.39 °C N/A 999.96 mbar 2.44 m/s 257.08 Deg 2.12 µg/m3
2022-11-16 11:00 14.53 µg/m3 72.71 µg/m3 10.14 µg/m3 23.21 °C N/A 1,000.77 mbar 2.55 m/s 250.17 Deg 2.68 µg/m3
2022-11-16 10:00 15.7 µg/m3 65.64 µg/m3 9.29 µg/m3 22.8 °C N/A 1,001.11 mbar 2.14 m/s 241.07 Deg 2.73 µg/m3
2022-11-16 09:00 18.93 µg/m3 59.32 µg/m3 8.27 µg/m3 22.08 °C N/A 1,001.29 mbar 1.68 m/s 233.4 Deg 3.49 µg/m3
2022-11-16 08:00 26.39 µg/m3 54.7 µg/m3 4.71 µg/m3 20.74 °C N/A 1,001.43 mbar 1.36 m/s 248.57 Deg 2.56 µg/m3
2022-11-16 07:00 20.66 µg/m3 65.22 µg/m3 3.69 µg/m3 20.06 °C N/A 1,001.78 mbar 1.73 m/s 251.54 Deg 0.85 µg/m3
2022-11-16 06:00 9.05 µg/m3 74.83 µg/m3 3.09 µg/m3 19.91 °C N/A 1,002.02 mbar 1.6 m/s 249.45 Deg 0.26 µg/m3
2022-11-16 05:00 2.93 µg/m3 75.38 µg/m3 1.48 µg/m3 19.74 °C N/A 1,002.15 mbar 1.4 m/s 238.83 Deg 0.08 µg/m3
2022-11-16 04:00 2.39 µg/m3 69.57 µg/m3 2.07 µg/m3 19.54 °C N/A 1,002.62 mbar 1.54 m/s 227.32 Deg -0.15 µg/m3
2022-11-16 03:00 4.92 µg/m3 63.07 µg/m3 2.58 µg/m3 18.84 °C N/A 1,003.36 mbar 0.83 m/s 187.57 Deg -0.24 µg/m3
2022-11-16 02:00 3.62 µg/m3 64.74 µg/m3 2.41 µg/m3 19.12 °C N/A 1,003.95 mbar 0.63 m/s 175.38 Deg -0.03 µg/m3
2022-11-16 01:00 6.44 µg/m3 62.93 µg/m3 4.79 µg/m3 19.21 °C N/A 1,004.63 mbar 0.83 m/s 248.38 Deg -0.14 µg/m3
2022-11-16 00:00 7.43 µg/m3 69.32 µg/m3 3.26 µg/m3 19 °C N/A 1,005.19 mbar 1.29 m/s 253.17 Deg -0.2 µg/m3
2022-11-15 23:00 14.47 µg/m3 59.62 µg/m3 7.68 µg/m3 18.47 °C N/A 1,005.66 mbar 0.73 m/s 240.83 Deg -0.54 µg/m3
2022-11-15 22:00 17.69 µg/m3 60.41 µg/m3 14.72 µg/m3 18.69 °C N/A 1,006.20 mbar 0.38 m/s 172.95 Deg -0.42 µg/m3
2022-11-15 21:00 32.57 µg/m3 49.7 µg/m3 8.19 µg/m3 18.58 °C N/A 1,006.30 mbar 0.77 m/s 264.03 Deg -0.4 µg/m3
2022-11-15 20:00 42.11 µg/m3 18.34 µg/m3 10.23 µg/m3 18.46 °C N/A 1,006.41 mbar 0.83 m/s 278.8 Deg 2.14 µg/m3
2022-11-15 19:00 55.73 µg/m3 3.29 µg/m3 9.12 µg/m3 18.86 °C N/A 1,006.41 mbar 0.43 m/s 278.84 Deg 11.29 µg/m3
2022-11-15 18:00 55.1 µg/m3 8.51 µg/m3 8.87 µg/m3 19.82 °C N/A 1,006.20 mbar 0.49 m/s 257.74 Deg 9.59 µg/m3
2022-11-15 17:00 34.05 µg/m3 34.28 µg/m3 3.94 µg/m3 21.29 °C N/A 1,006.18 mbar 0.77 m/s 253.3 Deg 4.08 µg/m3
2022-11-15 16:00 12.05 µg/m3 59.93 µg/m3 3.43 µg/m3 22.27 °C N/A 1,006.44 mbar 1.45 m/s 262.85 Deg 1.44 µg/m3
2022-11-15 15:00 10.43 µg/m3 62.61 µg/m3 3.6 µg/m3 22.58 °C N/A 1,006.63 mbar 1.9 m/s 253.32 Deg 2.08 µg/m3
2022-11-15 14:00 7.69 µg/m3 65.58 µg/m3 3.94 µg/m3 22.58 °C N/A 1,007.14 mbar 1.86 m/s 263.92 Deg 1.48 µg/m3
2022-11-15 13:00 7.24 µg/m3 65.55 µg/m3 4.28 µg/m3 22.52 °C N/A 1,007.78 mbar 1.67 m/s 265.52 Deg 1.1 µg/m3
2022-11-15 12:00 9.99 µg/m3 71.4 µg/m3 4.88 µg/m3 22.18 °C N/A 1,008.50 mbar 1.55 m/s 264.25 Deg 1.11 µg/m3
2022-11-15 11:00 11.91 µg/m3 75.88 µg/m3 8.36 µg/m3 22.05 °C N/A 1,008.94 mbar 1.53 m/s 272.78 Deg 1.23 µg/m3
2022-11-15 10:00 17.9 µg/m3 70.15 µg/m3 26.02 µg/m3 21.94 °C N/A 1,009.09 mbar 1.07 m/s 273.76 Deg 1.94 µg/m3
2022-11-15 09:00 65.82 µg/m3 15.3 µg/m3 27.88 µg/m3 20.49 °C N/A 1,009.10 mbar 0.49 m/s 285.65 Deg 52.82 µg/m3
2022-11-15 08:00 69.35 µg/m3 2.91 µg/m3 13.79 µg/m3 17.17 °C N/A 1,009.07 mbar 0.78 m/s 295.47 Deg 106.67 µg/m3
2022-11-15 07:00 54.82 µg/m3 3.6 µg/m3 5.98 µg/m3 15.95 °C N/A 1,008.94 mbar 0.73 m/s 288.98 Deg 40.35 µg/m3
2022-11-15 06:00 22.49 µg/m3 25.68 µg/m3 3.86 µg/m3 15.85 °C N/A 1,008.99 mbar 0.64 m/s 289.93 Deg 0.22 µg/m3
2022-11-15 05:00 15.01 µg/m3 34.13 µg/m3 5.22 µg/m3 15.86 °C N/A 1,009.10 mbar 0.53 m/s 305.38 Deg -0.8 µg/m3
2022-11-15 04:00 11.29 µg/m3 38.31 µg/m3 3.94 µg/m3 16.36 °C N/A 1,009.25 mbar 0.39 m/s 246.56 Deg -0.64 µg/m3
2022-11-15 03:00 8.34 µg/m3 38.03 µg/m3 3.94 µg/m3 16.62 °C N/A 1,009.40 mbar 0.44 m/s 305.31 Deg -0.43 µg/m3
2022-11-15 02:00 10.9 µg/m3 35.58 µg/m3 4.37 µg/m3 16.7 °C N/A 1,009.71 mbar 0.57 m/s 297.92 Deg -0.4 µg/m3
2022-11-15 01:00 12.04 µg/m3 39.41 µg/m3 4.62 µg/m3 17.18 °C N/A 1,009.83 mbar 0.53 m/s 305.8 Deg -0.45 µg/m3
2022-11-15 00:00 14.3 µg/m3 35.31 µg/m3 3.52 µg/m3 17.24 °C N/A 1,010.16 mbar 0.93 m/s 291.03 Deg -0.28 µg/m3
2022-11-14 23:00 10.8 µg/m3 43.63 µg/m3 3.77 µg/m3 17.41 °C N/A 1,010.37 mbar 0.88 m/s 292.13 Deg -0.1 µg/m3
2022-11-14 22:00 11.93 µg/m3 47.73 µg/m3 3.52 µg/m3 17.78 °C N/A 1,010.53 mbar 1.01 m/s 283.08 Deg 0.21 µg/m3
2022-11-14 21:00 25.28 µg/m3 38.46 µg/m3 5.22 µg/m3 18.03 °C N/A 1,010.56 mbar 1.05 m/s 270.87 Deg 1.5 µg/m3
2022-11-14 20:00 34.79 µg/m3 18.86 µg/m3 6.57 µg/m3 17.59 °C N/A 1,010.40 mbar 0.72 m/s 272.07 Deg 0.45 µg/m3
2022-11-14 19:00 39.76 µg/m3 10.9 µg/m3 10.99 µg/m3 17.55 °C N/A 1,010.28 mbar 0.66 m/s 289.53 Deg 2.69 µg/m3
2022-11-14 18:00 52.34 µg/m3 3.51 µg/m3 9.38 µg/m3 18.28 °C N/A 1,009.87 mbar 0.54 m/s 273.3 Deg 13.86 µg/m3
2022-11-14 17:00 47.35 µg/m3 17.22 µg/m3 7.85 µg/m3 19.84 °C N/A 1,009.66 mbar 0.41 m/s 208.3 Deg 17.71 µg/m3
2022-11-14 16:00 26.79 µg/m3 45.68 µg/m3 6.23 µg/m3 20.85 °C N/A 1,009.74 mbar 0.87 m/s 203.22 Deg 5.22 µg/m3
2022-11-14 15:00 34.02 µg/m3 39.87 µg/m3 4.54 µg/m3 20.4 °C N/A 1,009.85 mbar 1.17 m/s 174.25 Deg 11.52 µg/m3
2022-11-14 14:00 42.25 µg/m3 30.3 µg/m3 6.32 µg/m3 18.12 °C N/A 1,010.18 mbar 0.96 m/s 205.84 Deg 12.29 µg/m3
2022-11-14 13:00 41.65 µg/m3 30.69 µg/m3 8.36 µg/m3 17.12 °C N/A 1,010.83 mbar 1.27 m/s 197.16 Deg 11.7 µg/m3
2022-11-14 12:00 28.9 µg/m3 43.63 µg/m3 7.17 µg/m3 16.55 °C N/A 1,011.85 mbar 1.04 m/s 331.91 Deg 2.07 µg/m3
2022-11-14 11:00 20.11 µg/m3 54 µg/m3 18.12 µg/m3 17.41 °C N/A 1,011.49 mbar 2.08 m/s 144.08 Deg 2.38 µg/m3
2022-11-14 10:00 42.67 µg/m3 37.08 µg/m3 10.73 µg/m3 21.55 °C N/A 1,010.82 mbar 1.03 m/s 177.87 Deg 36.98 µg/m3
2022-11-14 09:00 42.81 µg/m3 29.4 µg/m3 15.23 µg/m3 21.12 °C N/A 1,010.38 mbar 0.49 m/s 240.69 Deg 15.82 µg/m3
2022-11-14 08:00 48.41 µg/m3 16.26 µg/m3 5.73 µg/m3 19.32 °C N/A 1,009.97 mbar 0.37 m/s 233.07 Deg 11.49 µg/m3
2022-11-14 07:00 46.57 µg/m3 18.89 µg/m3 3.86 µg/m3 18.13 °C N/A 1,009.66 mbar 0.7 m/s 241.59 Deg 4.77 µg/m3
2022-11-14 06:00 22.92 µg/m3 40.81 µg/m3 3.69 µg/m3 18.05 °C N/A 1,009.55 mbar 0.75 m/s 259.56 Deg 0.05 µg/m3
2022-11-14 05:00 8.7 µg/m3 49.9 µg/m3 1.74 µg/m3 18.15 °C N/A 1,009.52 mbar 0.55 m/s 242.07 Deg -0.41 µg/m3
2022-11-14 04:00 4.19 µg/m3 59.04 µg/m3 3.52 µg/m3 18.3 °C N/A 1,009.52 mbar 0.61 m/s 219.58 Deg -0.35 µg/m3
2022-11-14 03:00 5.9 µg/m3 46.59 µg/m3 2.67 µg/m3 17.48 °C N/A 1,009.69 mbar 0.46 m/s 165.52 Deg -0.38 µg/m3
2022-11-14 02:00 3.77 µg/m3 45.71 µg/m3 3.52 µg/m3 17.68 °C N/A 1,009.86 mbar 0.35 m/s 217.29 Deg -0.3 µg/m3
2022-11-14 01:00 4.57 µg/m3 60.05 µg/m3 2.24 µg/m3 17.65 °C N/A 1,009.80 mbar 0.51 m/s 188.13 Deg -0.26 µg/m3
2022-11-14 00:00 9.3 µg/m3 55.33 µg/m3 3.94 µg/m3 17.47 °C N/A 1,009.89 mbar 0.87 m/s 228.43 Deg -0.46 µg/m3
2022-11-13 23:00 19.78 µg/m3 39.29 µg/m3 5.73 µg/m3 17.04 °C N/A 1,010.26 mbar 0.91 m/s 240.82 Deg -0.27 µg/m3
2022-11-13 22:00 28.46 µg/m3 22.65 µg/m3 6.66 µg/m3 16.75 °C N/A 1,010.63 mbar 0.65 m/s 259.19 Deg 0.13 µg/m3
2022-11-13 21:00 32.24 µg/m3 20.94 µg/m3 15.15 µg/m3 16.86 °C N/A 1,010.57 mbar 0.56 m/s 302.71 Deg -0.37 µg/m3
2022-11-13 20:00 54.86 µg/m3 4.71 µg/m3 14.72 µg/m3 16.97 °C N/A 1,010.25 mbar 0.49 m/s 280.99 Deg 23.3 µg/m3
2022-11-13 19:00 60.5 µg/m3 4.62 µg/m3 6.83 µg/m3 17.9 °C N/A 1,009.98 mbar 0.46 m/s 281.38 Deg 18.03 µg/m3
2022-11-13 18:00 39.4 µg/m3 35.76 µg/m3 5.73 µg/m3 19.19 °C N/A 1,009.37 mbar 0.49 m/s 232.82 Deg 1.02 µg/m3
2022-11-13 17:00 22.32 µg/m3 66.62 µg/m3 4.03 µg/m3 20.4 °C N/A 1,009.10 mbar 0.71 m/s 176.17 Deg 0.71 µg/m3
2022-11-13 16:00 6.65 µg/m3 81.49 µg/m3 3.01 µg/m3 21.77 °C N/A 1,008.93 mbar 1.03 m/s 191.45 Deg 0.69 µg/m3
2022-11-13 15:00 4.18 µg/m3 82.58 µg/m3 3.52 µg/m3 22.2 °C N/A 1,008.74 mbar 0.75 m/s 277.23 Deg 0.32 µg/m3
2022-11-13 14:00 3.46 µg/m3 81.06 µg/m3 2.5 µg/m3 22.16 °C N/A 1,008.51 mbar 0.96 m/s 292.35 Deg 0.24 µg/m3
2022-11-13 13:00 4.52 µg/m3 77.26 µg/m3 3.01 µg/m3 21.64 °C N/A 1,008.88 mbar 0.63 m/s 290.09 Deg 0.37 µg/m3
2022-11-13 12:00 11.85 µg/m3 63.34 µg/m3 5.22 µg/m3 20.22 °C N/A 1,009.37 mbar 0.64 m/s 253.43 Deg 1.47 µg/m3
2022-11-13 11:00 19.06 µg/m3 54.68 µg/m3 6.32 µg/m3 20.17 °C N/A 1,009.54 mbar 0.45 m/s 242.29 Deg 3.39 µg/m3
2022-11-13 10:00 25.8 µg/m3 36.04 µg/m3 4.96 µg/m3 19.29 °C N/A 1,009.19 mbar 0.3 m/s 162.32 Deg 4.58 µg/m3
2022-11-13 09:00 33.77 µg/m3 23.66 µg/m3 2.24 µg/m3 17.82 °C N/A 1,008.89 mbar 0.4 m/s 210.71 Deg 10.23 µg/m3
2022-11-13 08:00 22.6 µg/m3 24.82 µg/m3 0.29 µg/m3 16.17 °C N/A 1,008.44 mbar 0.44 m/s 290.67 Deg 1.93 µg/m3
2022-11-13 07:00 24.12 µg/m3 29.68 µg/m3 -0.39 µg/m3 15.94 °C N/A 1,007.98 mbar 0.43 m/s 275.31 Deg 0.08 µg/m3
2022-11-13 06:00 14.76 µg/m3 50 µg/m3 -1.24 µg/m3 16.12 °C N/A 1,007.48 mbar 0.71 m/s 219.14 Deg 0.13 µg/m3
2022-11-13 05:00 3.51 µg/m3 69.97 µg/m3 0.55 µg/m3 16.34 °C N/A 1,007.37 mbar 1.22 m/s 170.64 Deg -0.18 µg/m3
2022-11-13 04:00 4.34 µg/m3 67.32 µg/m3 4.54 µg/m3 16.34 °C N/A 1,007.28 mbar 1.4 m/s 100.67 Deg -0.32 µg/m3
2022-11-13 03:00 7.68 µg/m3 57.6 µg/m3 N/A 16.4 °C N/A 1,007.28 mbar 0.84 m/s 212.12 Deg -0.32 µg/m3
2022-11-13 02:00 9 µg/m3 54.92 µg/m3 N/A 16.12 °C N/A 1,007.42 mbar 0.72 m/s 181.18 Deg -0.33 µg/m3
2022-11-13 01:00 11.12 µg/m3 56.89 µg/m3 N/A 16.04 °C N/A 1,007.71 mbar 0.56 m/s 227.48 Deg -0.6 µg/m3
2022-11-13 00:00 21.4 µg/m3 43.77 µg/m3 N/A 16.16 °C N/A 1,008.16 mbar 0.84 m/s 174.69 Deg -0.6 µg/m3
2022-11-12 23:00 27.09 µg/m3 33.7 µg/m3 N/A 16.3 °C N/A 1,008.46 mbar 0.6 m/s 230.31 Deg -0.51 µg/m3
2022-11-12 22:00 17.37 µg/m3 36.58 µg/m3 N/A 16.3 °C N/A 1,008.63 mbar 0.78 m/s 263.4 Deg 3.83 µg/m3
2022-11-12 21:00 12 µg/m3 36.88 µg/m3 N/A 16.04 °C N/A 1,008.64 mbar 0.97 m/s 206.44 Deg 5.92 µg/m3
2022-11-12 20:00 12 µg/m3 65.65 µg/m3 N/A 16.07 °C N/A 1,008.88 mbar 1.49 m/s 197.17 Deg 0.48 µg/m3
2022-11-12 19:00 19.54 µg/m3 53.95 µg/m3 5.9 µg/m3 16.31 °C N/A 1,009.08 mbar 0.91 m/s 248.65 Deg 0.91 µg/m3
2022-11-12 18:00 20.03 µg/m3 53.85 µg/m3 8.02 µg/m3 16.59 °C N/A 1,009.15 mbar 0.82 m/s 275.7 Deg 0.46 µg/m3
2022-11-12 17:00 13.86 µg/m3 58.55 µg/m3 6.23 µg/m3 16.54 °C N/A 1,009.54 mbar 0.88 m/s 247.97 Deg 0.29 µg/m3
2022-11-12 16:00 11.44 µg/m3 69.81 µg/m3 6.15 µg/m3 17.21 °C N/A 1,010.08 mbar 1.16 m/s 241.29 Deg 0.61 µg/m3
2022-11-12 15:00 13.32 µg/m3 70.78 µg/m3 7 µg/m3 20.27 °C N/A 1,010.01 mbar 1.09 m/s 265.22 Deg 0.59 µg/m3
2022-11-12 14:00 6.51 µg/m3 79.23 µg/m3 8.44 µg/m3 21.57 °C N/A 1,010.54 mbar 1.42 m/s 283.69 Deg 0.64 µg/m3
2022-11-12 13:00 16.92 µg/m3 68.97 µg/m3 8.87 µg/m3 20.47 °C N/A 1,011.55 mbar 1.44 m/s 282.3 Deg 1.2 µg/m3
2022-11-12 12:00 31.73 µg/m3 52.11 µg/m3 9.38 µg/m3 20.3 °C N/A 1,012.34 mbar 0.91 m/s 243.5 Deg 2.75 µg/m3
2022-11-12 11:00 27.36 µg/m3 56.49 µg/m3 8.44 µg/m3 20.58 °C N/A 1,012.98 mbar 0.53 m/s 279.58 Deg 1.98 µg/m3
2022-11-12 10:00 18.15 µg/m3 65.99 µg/m3 9.55 µg/m3 20.92 °C N/A 1,013.01 mbar 0.93 m/s 197.38 Deg 2.45 µg/m3
2022-11-12 09:00 30.49 µg/m3 49.81 µg/m3 18.97 µg/m3 20.5 °C N/A 1,013.08 mbar 0.48 m/s 327.05 Deg 4.8 µg/m3
2022-11-12 08:00 65.06 µg/m3 8.31 µg/m3 7.93 µg/m3 18.21 °C N/A 1,012.92 mbar 0.43 m/s 302.58 Deg 48.74 µg/m3
2022-11-12 07:00 18.3 µg/m3 49.15 µg/m3 6.07 µg/m3 17.87 °C N/A 1,012.81 mbar 0.6 m/s 28.67 Deg -0.19 µg/m3
2022-11-12 06:00 10.12 µg/m3 62.05 µg/m3 6.07 µg/m3 17.8 °C N/A 1,013.03 mbar 0.71 m/s 136.97 Deg -0.37 µg/m3
2022-11-12 05:00 7.53 µg/m3 64.25 µg/m3 5.98 µg/m3 17.97 °C N/A 1,013.26 mbar 0.67 m/s 68.48 Deg -0.16 µg/m3
2022-11-12 04:00 6.54 µg/m3 74.8 µg/m3 3.94 µg/m3 18.57 °C N/A 1,013.59 mbar 0.81 m/s 295.24 Deg -0.22 µg/m3
2022-11-12 03:00 5.47 µg/m3 80.09 µg/m3 4.62 µg/m3 19 °C N/A 1,014.13 mbar 1.24 m/s 292.72 Deg -0.04 µg/m3
2022-11-12 02:00 5.95 µg/m3 78.01 µg/m3 5.73 µg/m3 18.9 °C N/A 1,014.56 mbar 1.14 m/s 317.03 Deg -0.18 µg/m3
2022-11-12 01:00 10.48 µg/m3 69.11 µg/m3 5.98 µg/m3 18.68 °C N/A 1,014.80 mbar 0.84 m/s 98.99 Deg -0.28 µg/m3
2022-11-12 00:00 8.43 µg/m3 74.57 µg/m3 4.62 µg/m3 19.03 °C N/A 1,014.91 mbar 0.82 m/s 217.25 Deg -0.25 µg/m3
2022-11-11 23:00 8.59 µg/m3 77 µg/m3 5.39 µg/m3 19.29 °C N/A 1,015.05 mbar 0.83 m/s 100.64 Deg -0.19 µg/m3
2022-11-11 22:00 13.05 µg/m3 73.08 µg/m3 8.19 µg/m3 19.32 °C N/A 1,015.11 mbar 0.93 m/s 275.38 Deg 0.11 µg/m3
2022-11-11 21:00 17.68 µg/m3 67.05 µg/m3 4.88 µg/m3 19.53 °C N/A 1,014.82 mbar 1.14 m/s 223.78 Deg 0.03 µg/m3
2022-11-11 20:00 19.85 µg/m3 63.54 µg/m3 4.96 µg/m3 19.53 °C N/A 1,014.60 mbar 1 m/s 201.37 Deg 0.04 µg/m3
2022-11-11 19:00 25.83 µg/m3 60.16 µg/m3 4.71 µg/m3 19.64 °C N/A 1,014.59 mbar 0.94 m/s 173.83 Deg 0.02 µg/m3
2022-11-11 18:00 19.14 µg/m3 69.56 µg/m3 2.75 µg/m3 19.86 °C N/A 1,014.28 mbar 1.17 m/s 236.61 Deg 0.43 µg/m3
2022-11-11 17:00 11.46 µg/m3 76.71 µg/m3 3.09 µg/m3 20.31 °C N/A 1,014.20 mbar 1.69 m/s 291.64 Deg 0.65 µg/m3
2022-11-11 16:00 10.62 µg/m3 80.55 µg/m3 3.86 µg/m3 20.9 °C N/A 1,014.18 mbar 1.61 m/s 208.6 Deg 1.09 µg/m3
2022-11-11 15:00 12.76 µg/m3 84.07 µg/m3 3.69 µg/m3 21.41 °C N/A 1,014.14 mbar 2.17 m/s 331.42 Deg 1.83 µg/m3
2022-11-11 14:00 10.09 µg/m3 82.76 µg/m3 3.35 µg/m3 21.67 °C N/A 1,014.18 mbar 2.46 m/s 165 Deg 1.61 µg/m3
2022-11-11 13:00 7.7 µg/m3 83.43 µg/m3 2.16 µg/m3 21.8 °C N/A 1,014.50 mbar 2.18 m/s 195.47 Deg 0.74 µg/m3
2022-11-11 12:00 9.78 µg/m3 82.33 µg/m3 2.5 µg/m3 21.47 °C N/A 1,014.83 mbar 2.62 m/s 191.98 Deg 1.17 µg/m3
2022-11-11 11:00 11.09 µg/m3 76.89 µg/m3 -0.22 µg/m3 21.28 °C N/A 1,015.02 mbar 2.28 m/s 199 Deg 1.18 µg/m3
2022-11-11 10:00 17.23 µg/m3 66.19 µg/m3 -0.22 µg/m3 21.02 °C N/A 1,015.03 mbar 1.94 m/s 169.75 Deg 2.09 µg/m3
2022-11-11 09:00 81.11 µg/m3 7.89 µg/m3 7.89 µg/m3 20.32 °C N/A 1,014.71 mbar 1.03 m/s 229.54 Deg 78.92 µg/m3
2022-11-11 08:00 57.53 µg/m3 2.86 µg/m3 14.77 µg/m3 16.9 °C N/A 1,014.35 mbar 0.26 m/s 220.61 Deg 75.53 µg/m3
2022-11-11 07:00 43.27 µg/m3 1.51 µg/m3 5.9 µg/m3 15.16 °C N/A 1,013.95 mbar 0.35 m/s 302.02 Deg 26.86 µg/m3
2022-11-11 06:00 28.62 µg/m3 9.49 µg/m3 5.13 µg/m3 15.23 °C N/A 1,013.71 mbar 0.36 m/s 296.61 Deg 1.08 µg/m3
2022-11-11 05:00 23.47 µg/m3 19.56 µg/m3 4.83 µg/m3 15.29 °C N/A 1,013.72 mbar 0.38 m/s 298.83 Deg -0.42 µg/m3
2022-11-11 04:00 21.2 µg/m3 13.4 µg/m3 4.32 µg/m3 15.18 °C N/A 1,013.57 mbar 0.36 m/s 299.7 Deg -0.5 µg/m3
2022-11-11 03:00 18.19 µg/m3 17.83 µg/m3 5.22 µg/m3 15.17 °C N/A 1,013.53 mbar 0.34 m/s 297.08 Deg -0.38 µg/m3
2022-11-11 02:00 17.66 µg/m3 18.49 µg/m3 6.07 µg/m3 15.25 °C N/A 1,013.67 mbar 0.35 m/s 299.62 Deg -0.66 µg/m3
2022-11-11 01:00 23.32 µg/m3 19.98 µg/m3 6.43 µg/m3 15.61 °C N/A 1,013.61 mbar 0.35 m/s 297.36 Deg -0.6 µg/m3
2022-11-11 00:00 28.88 µg/m3 16.58 µg/m3 9.42 µg/m3 15.9 °C N/A 1,013.63 mbar 0.39 m/s 296.12 Deg -0.32 µg/m3
2022-11-10 23:00 40.93 µg/m3 6.6 µg/m3 10.9 µg/m3 16.27 °C N/A 1,013.47 mbar 0.42 m/s 286.64 Deg 2.55 µg/m3
2022-11-10 22:00 48.78 µg/m3 1.08 µg/m3 13.05 µg/m3 16.59 °C N/A 1,013.11 mbar 0.41 m/s 292.32 Deg 12.32 µg/m3
2022-11-10 21:00 57.13 µg/m3 0.96 µg/m3 15.36 µg/m3 16.99 °C N/A 1,012.48 mbar 0.42 m/s 292.71 Deg 23.08 µg/m3
2022-11-10 20:00 62.15 µg/m3 0.94 µg/m3 15.28 µg/m3 17.77 °C N/A 1,011.99 mbar 0.47 m/s 279.78 Deg 21.77 µg/m3
2022-11-10 19:00 74.9 µg/m3 2.1 µg/m3 10.1 µg/m3 18.73 °C N/A 1,011.37 mbar 0.47 m/s 267.21 Deg 20.6 µg/m3
2022-11-10 18:00 62.61 µg/m3 18.88 µg/m3 5.77 µg/m3 19.62 °C N/A 1,010.83 mbar 0.5 m/s 186.08 Deg 7.95 µg/m3
2022-11-10 17:00 27.71 µg/m3 57.35 µg/m3 7.3 µg/m3 20.75 °C N/A 1,010.42 mbar 1.04 m/s 151.1 Deg 1.25 µg/m3
2022-11-10 16:00 26.97 µg/m3 59.84 µg/m3 7.15 µg/m3 21.7 °C N/A 1,010.20 mbar 1.49 m/s 171.77 Deg 4.85 µg/m3
2022-11-10 15:00 24.17 µg/m3 65.15 µg/m3 6.83 µg/m3 21.74 °C N/A 1,010.08 mbar 1.57 m/s 177.38 Deg 4.63 µg/m3
2022-11-10 14:00 20.33 µg/m3 65.47 µg/m3 5.3 µg/m3 22.18 °C N/A 1,010.01 mbar 1.76 m/s 181.78 Deg 4.14 µg/m3
2022-11-10 13:00 15.87 µg/m3 71.55 µg/m3 5.62 µg/m3 22 °C N/A 1,010.25 mbar 1.63 m/s 150.62 Deg 2.22 µg/m3
2022-11-10 12:00 21.63 µg/m3 64.42 µg/m3 6.02 µg/m3 21.45 °C N/A 1,010.38 mbar 1.51 m/s 150.76 Deg 3.29 µg/m3
2022-11-10 11:00 19.32 µg/m3 64.72 µg/m3 9.89 µg/m3 21.72 °C N/A 1,010.32 mbar 1.41 m/s 168.12 Deg 3.69 µg/m3
2022-11-10 10:00 43.7 µg/m3 41.12 µg/m3 20.9 µg/m3 21.12 °C N/A 1,010.17 mbar 1.6 m/s 161.45 Deg 16.59 µg/m3
2022-11-10 09:00 75.6 µg/m3 9.73 µg/m3 19.63 µg/m3 19.99 °C N/A 1,009.89 mbar 0.75 m/s 152.23 Deg 68.59 µg/m3
2022-11-10 08:00 61.52 µg/m3 3.16 µg/m3 12.9 µg/m3 16.67 °C N/A 1,009.58 mbar 0.36 m/s 281.99 Deg 78.46 µg/m3
2022-11-10 07:00 48.52 µg/m3 1.83 µg/m3 5.94 µg/m3 15.02 °C N/A 1,009.23 mbar 0.37 m/s 295.53 Deg 32.71 µg/m3
2022-11-10 06:00 28.97 µg/m3 9.9 µg/m3 3.88 µg/m3 14.78 °C N/A 1,008.94 mbar 0.32 m/s 288.38 Deg 1.11 µg/m3
2022-11-10 05:00 23.58 µg/m3 17.98 µg/m3 3.58 µg/m3 14.82 °C N/A 1,008.86 mbar 0.33 m/s 295.93 Deg 0.25 µg/m3
2022-11-10 04:00 24.64 µg/m3 12.8 µg/m3 4.79 µg/m3 14.98 °C N/A 1,008.81 mbar 0.32 m/s 299.24 Deg 0.65 µg/m3
2022-11-10 03:00 21.06 µg/m3 16.79 µg/m3 4.26 µg/m3 15.19 °C N/A 1,008.90 mbar 0.33 m/s 296.91 Deg -0.3 µg/m3
2022-11-10 02:00 20.56 µg/m3 17.75 µg/m3 3.88 µg/m3 15.55 °C N/A 1,009.11 mbar 0.3 m/s 304.66 Deg -0.54 µg/m3
2022-11-10 01:00 13.64 µg/m3 42.3 µg/m3 3.79 µg/m3 16 °C N/A 1,009.12 mbar 0.54 m/s 290.3 Deg -0.68 µg/m3
2022-11-10 00:00 19.27 µg/m3 36.03 µg/m3 5.68 µg/m3 16.15 °C N/A 1,009.27 mbar 0.49 m/s 286.97 Deg -0.56 µg/m3
2022-11-09 23:00 28.88 µg/m3 30.41 µg/m3 8.17 µg/m3 16.27 °C N/A 1,009.34 mbar 0.63 m/s 284.65 Deg -0.44 µg/m3
2022-11-09 22:00 48.74 µg/m3 13.93 µg/m3 10.06 µg/m3 16.53 °C N/A 1,009.31 mbar 0.51 m/s 280.44 Deg 1.27 µg/m3
2022-11-09 21:00 63.99 µg/m3 3.84 µg/m3 9.72 µg/m3 16.84 °C N/A 1,009.14 mbar 0.48 m/s 281.52 Deg 9.84 µg/m3
2022-11-09 20:00 63.69 µg/m3 6.76 µg/m3 13.35 µg/m3 17.47 °C N/A 1,009.01 mbar 0.66 m/s 277.94 Deg 2.52 µg/m3
2022-11-09 19:00 69.05 µg/m3 3.17 µg/m3 10.12 µg/m3 18.05 °C N/A 1,008.76 mbar 0.5 m/s 285.3 Deg 12.37 µg/m3
2022-11-09 18:00 66.21 µg/m3 14.91 µg/m3 6.83 µg/m3 19.24 °C N/A 1,008.51 mbar 0.57 m/s 219.19 Deg 10.52 µg/m3
2022-11-09 17:00 28.9 µg/m3 58.09 µg/m3 6.36 µg/m3 20.57 °C N/A 1,008.41 mbar 0.99 m/s 201.48 Deg 2.6 µg/m3
2022-11-09 16:00 14.52 µg/m3 78.39 µg/m3 5 µg/m3 21.51 °C N/A 1,008.43 mbar 1.4 m/s 201.55 Deg 1.45 µg/m3
2022-11-09 15:00 9.43 µg/m3 80.59 µg/m3 4.6 µg/m3 21.72 °C N/A 1,008.57 mbar 1.71 m/s 207.12 Deg 1.57 µg/m3
2022-11-09 14:00 10.48 µg/m3 80.5 µg/m3 5.26 µg/m3 21.78 °C N/A 1,008.69 mbar 1.81 m/s 202.43 Deg 2.17 µg/m3
2022-11-09 13:00 10.84 µg/m3 77.73 µg/m3 4.64 µg/m3 21.77 °C N/A 1,009.27 mbar 1.76 m/s 208.98 Deg 2.65 µg/m3
2022-11-09 12:00 9.08 µg/m3 79.56 µg/m3 7.36 µg/m3 21.84 °C N/A 1,009.81 mbar 1.73 m/s 230.57 Deg 1.02 µg/m3
2022-11-09 11:00 23.91 µg/m3 70.35 µg/m3 11.6 µg/m3 21.63 °C N/A 1,010.03 mbar 1.6 m/s 197.6 Deg 8.66 µg/m3
2022-11-09 10:00 46.51 µg/m3 46.7 µg/m3 17.46 µg/m3 20.87 °C N/A 1,009.99 mbar 1.43 m/s 170.85 Deg 15.3 µg/m3
2022-11-09 09:00 74.84 µg/m3 18.42 µg/m3 17.08 µg/m3 20.21 °C N/A 1,009.88 mbar 0.74 m/s 155.6 Deg 49.79 µg/m3
2022-11-09 08:00 73.64 µg/m3 3.89 µg/m3 9.99 µg/m3 16.71 °C N/A 1,009.55 mbar 0.38 m/s 280.64 Deg 81.58 µg/m3
2022-11-09 07:00 56.5 µg/m3 3.92 µg/m3 6.07 µg/m3 14.63 °C N/A 1,009.40 mbar 0.52 m/s 287.84 Deg 26.12 µg/m3
2022-11-09 06:00 39.2 µg/m3 13.78 µg/m3 3.75 µg/m3 14.5 °C N/A 1,009.36 mbar 0.5 m/s 288.54 Deg 2.05 µg/m3
2022-11-09 05:00 24.12 µg/m3 25.14 µg/m3 2.99 µg/m3 14.4 °C N/A 1,009.40 mbar 0.43 m/s 285.93 Deg -0.16 µg/m3
2022-11-09 04:00 16.63 µg/m3 38.21 µg/m3 2.86 µg/m3 14.87 °C N/A 1,009.36 mbar 0.52 m/s 287.42 Deg -0.51 µg/m3
2022-11-09 03:00 12.14 µg/m3 45.77 µg/m3 4.37 µg/m3 14.83 °C N/A 1,009.53 mbar 0.49 m/s 283.89 Deg -0.45 µg/m3
2022-11-09 02:00 21.74 µg/m3 33.65 µg/m3 4.56 µg/m3 14.96 °C N/A 1,009.76 mbar 0.47 m/s 293.2 Deg -0.66 µg/m3
2022-11-09 01:00 31.02 µg/m3 25.04 µg/m3 5.47 µg/m3 15.16 °C N/A 1,009.79 mbar 0.32 m/s 297.06 Deg -0.72 µg/m3
2022-11-09 00:00 33.09 µg/m3 22.43 µg/m3 8.48 µg/m3 15.35 °C N/A 1,009.95 mbar 0.44 m/s 290.15 Deg -0.18 µg/m3
2022-11-08 23:00 47.78 µg/m3 8.96 µg/m3 11.03 µg/m3 15.62 °C N/A 1,009.99 mbar 0.35 m/s 274.7 Deg 6.01 µg/m3
2022-11-08 22:00 59.1 µg/m3 1.64 µg/m3 14.07 µg/m3 15.94 °C N/A 1,009.77 mbar 0.37 m/s 272.27 Deg 17.74 µg/m3
2022-11-08 21:00 67.76 µg/m3 1.24 µg/m3 13.94 µg/m3 16.42 °C N/A 1,009.51 mbar 0.39 m/s 283.53 Deg 49.86 µg/m3
2022-11-08 20:00 67.95 µg/m3 1.2 µg/m3 10.31 µg/m3 16.78 °C N/A 1,009.32 mbar 0.59 m/s 280.08 Deg 54.19 µg/m3
2022-11-08 19:00 66.47 µg/m3 5.38 µg/m3 5.32 µg/m3 17.91 °C N/A 1,009.00 mbar 0.42 m/s 288.78 Deg 23.78 µg/m3
2022-11-08 18:00 43.04 µg/m3 32.41 µg/m3 2.24 µg/m3 19.17 °C N/A 1,008.72 mbar 0.41 m/s 287.99 Deg 0.85 µg/m3
2022-11-08 17:00 7.3 µg/m3 77.86 µg/m3 2.16 µg/m3 20.67 °C N/A 1,008.51 mbar 0.69 m/s 313.69 Deg 0.32 µg/m3
2022-11-08 16:00 4.54 µg/m3 81.92 µg/m3 1.76 µg/m3 21.91 °C N/A 1,008.60 mbar 0.83 m/s 312.43 Deg 0.44 µg/m3
2022-11-08 15:00 3.64 µg/m3 83.34 µg/m3 2.07 µg/m3 22.13 °C N/A 1,008.72 mbar 1.04 m/s 319.82 Deg 0.3 µg/m3
2022-11-08 14:00 3.91 µg/m3 82.63 µg/m3 1.99 µg/m3 22.2 °C N/A 1,009.00 mbar 1.39 m/s 302.78 Deg 0.43 µg/m3
2022-11-08 13:00 3.14 µg/m3 82.48 µg/m3 2.03 µg/m3 22.39 °C N/A 1,009.46 mbar 1.27 m/s 292.85 Deg 0.37 µg/m3
2022-11-08 12:00 3.36 µg/m3 82.79 µg/m3 2.07 µg/m3 22.66 °C N/A 1,009.96 mbar 1.11 m/s 318.43 Deg 0.31 µg/m3
2022-11-08 11:00 4.42 µg/m3 79.62 µg/m3 1.76 µg/m3 22.28 °C N/A 1,010.29 mbar 1.09 m/s 302.05 Deg 0.41 µg/m3
2022-11-08 10:00 5.93 µg/m3 76.24 µg/m3 13.81 µg/m3 21.43 °C N/A 1,010.13 mbar 0.95 m/s 298.74 Deg 0.24 µg/m3
2022-11-08 09:00 43.3 µg/m3 37.91 µg/m3 20.09 µg/m3 20.32 °C N/A 1,009.93 mbar 0.54 m/s 287.57 Deg 36.66 µg/m3
2022-11-08 08:00 64.65 µg/m3 4.03 µg/m3 12.11 µg/m3 16.76 °C N/A 1,009.72 mbar 0.59 m/s 282.48 Deg 85.02 µg/m3
2022-11-08 07:00 53.88 µg/m3 1.68 µg/m3 4.11 µg/m3 15.12 °C N/A 1,009.50 mbar 0.55 m/s 284.23 Deg 30.07 µg/m3
2022-11-08 06:00 20.59 µg/m3 25.03 µg/m3 1.97 µg/m3 15.27 °C N/A 1,009.53 mbar 0.53 m/s 289.47 Deg -0.2 µg/m3
2022-11-08 05:00 8.84 µg/m3 36.79 µg/m3 1.76 µg/m3 15.35 °C N/A 1,009.58 mbar 0.46 m/s 289.07 Deg -0.67 µg/m3
2022-11-08 04:00 9.73 µg/m3 34.82 µg/m3 2.31 µg/m3 15.48 °C N/A 1,009.57 mbar 0.34 m/s 292.51 Deg -0.58 µg/m3
2022-11-08 03:00 9.45 µg/m3 34.67 µg/m3 2.18 µg/m3 15.59 °C N/A 1,009.79 mbar 0.41 m/s 286.99 Deg -0.4 µg/m3
2022-11-08 02:00 10.95 µg/m3 36.73 µg/m3 3.03 µg/m3 16.01 °C N/A 1,010.04 mbar 0.41 m/s 295.48 Deg -0.6 µg/m3
2022-11-08 01:00 12.99 µg/m3 36.13 µg/m3 3.28 µg/m3 16.08 °C N/A 1,010.12 mbar 0.24 m/s 292.94 Deg -0.42 µg/m3
2022-11-08 00:00 16.51 µg/m3 38.72 µg/m3 2.69 µg/m3 16.48 °C N/A 1,010.20 mbar 0.36 m/s 292.64 Deg -0.48 µg/m3
2022-11-07 23:00 9.35 µg/m3 54.33 µg/m3 1.23 µg/m3 17.25 °C N/A 1,010.21 mbar 0.45 m/s 300.73 Deg -0.28 µg/m3
2022-11-07 22:00 8.49 µg/m3 61.15 µg/m3 0.61 µg/m3 17.69 °C N/A 1,010.12 mbar 0.7 m/s 302.3 Deg -0.35 µg/m3
2022-11-07 21:00 8.76 µg/m3 61.81 µg/m3 1.06 µg/m3 17.69 °C N/A 1,009.89 mbar 0.66 m/s 299.78 Deg -0.3 µg/m3
2022-11-07 20:00 16.34 µg/m3 55.21 µg/m3 1.35 µg/m3 17.74 °C N/A 1,009.70 mbar 0.61 m/s 304.23 Deg -0.41 µg/m3
2022-11-07 19:00 19.55 µg/m3 54.24 µg/m3 0.95 µg/m3 18.22 °C N/A 1,009.35 mbar 0.52 m/s 308.94 Deg -0.09 µg/m3
2022-11-07 18:00 21.13 µg/m3 55.99 µg/m3 1.95 µg/m3 18.92 °C N/A 1,008.87 mbar 0.72 m/s 327.03 Deg -0.19 µg/m3
2022-11-07 17:00 8.44 µg/m3 71.8 µg/m3 1.95 µg/m3 20.33 °C N/A 1,008.39 mbar 0.92 m/s 326.55 Deg -0.08 µg/m3
2022-11-07 16:00 5.62 µg/m3 76.72 µg/m3 3.16 µg/m3 21.46 °C N/A 1,008.21 mbar 1.11 m/s 333.15 Deg 0.32 µg/m3
2022-11-07 15:00 4.44 µg/m3 79.6 µg/m3 3.09 µg/m3 21.98 °C N/A 1,008.13 mbar 1.14 m/s 333.7 Deg 0.5 µg/m3
2022-11-07 14:00 5.27 µg/m3 78.2 µg/m3 1.84 µg/m3 21.7 °C N/A 1,008.27 mbar 1.36 m/s 242.4 Deg 0.98 µg/m3
2022-11-07 13:00 4.96 µg/m3 76.57 µg/m3 2.75 µg/m3 21.53 °C N/A 1,008.57 mbar 1.58 m/s 185.89 Deg 0.67 µg/m3
2022-11-07 12:00 6.11 µg/m3 71.32 µg/m3 4.2 µg/m3 21.63 °C N/A 1,008.91 mbar 1.49 m/s 99.31 Deg 0.98 µg/m3
2022-11-07 11:00 6.01 µg/m3 71.52 µg/m3 4.03 µg/m3 21.26 °C N/A 1,009.10 mbar 1.3 m/s 101.09 Deg 0.77 µg/m3
2022-11-07 10:00 9.14 µg/m3 64.75 µg/m3 4.49 µg/m3 21.23 °C N/A 1,008.75 mbar 1.1 m/s 91.37 Deg 2.07 µg/m3
2022-11-07 09:00 21.65 µg/m3 49.09 µg/m3 5.15 µg/m3 20.39 °C N/A 1,008.37 mbar 0.72 m/s 258.12 Deg 4.18 µg/m3
2022-11-07 08:00 19.45 µg/m3 45.57 µg/m3 3.45 µg/m3 18.56 °C N/A 1,008.00 mbar 0.83 m/s 331.04 Deg 1.88 µg/m3
2022-11-07 07:00 17.27 µg/m3 41.98 µg/m3 1.88 µg/m3 17.22 °C N/A 1,007.68 mbar 0.71 m/s 308.42 Deg 0.21 µg/m3
2022-11-07 06:00 11.43 µg/m3 47.26 µg/m3 1.63 µg/m3 17.26 °C N/A 1,007.26 mbar 0.85 m/s 301.2 Deg 0.16 µg/m3
2022-11-07 05:00 8.9 µg/m3 50.99 µg/m3 1.97 µg/m3 17.03 °C N/A 1,006.89 mbar 0.59 m/s 319.1 Deg 0.03 µg/m3
2022-11-07 04:00 8.85 µg/m3 47.06 µg/m3 0.48 µg/m3 17.02 °C N/A 1,006.71 mbar 0.55 m/s 317.71 Deg -0.04 µg/m3
2022-11-07 03:00 6.38 µg/m3 52.37 µg/m3 0.46 µg/m3 17.29 °C N/A 1,006.62 mbar 0.62 m/s 224.75 Deg 0.1 µg/m3
2022-11-07 02:00 4.21 µg/m3 58.6 µg/m3 0.82 µg/m3 17.85 °C N/A 1,006.45 mbar 0.78 m/s 326.85 Deg 0.08 µg/m3
2022-11-07 01:00 3.38 µg/m3 61.34 µg/m3 1.01 µg/m3 18.1 °C N/A 1,006.30 mbar 0.83 m/s 316.73 Deg 0.06 µg/m3
2022-11-07 00:00 4.14 µg/m3 62.16 µg/m3 0.93 µg/m3 18.45 °C N/A 1,006.14 mbar 1 m/s 330.43 Deg -0.01 µg/m3
2022-11-06 23:00 4.7 µg/m3 62.08 µg/m3 1.08 µg/m3 18.8 °C N/A 1,005.76 mbar 1.23 m/s 335.65 Deg -0.01 µg/m3
2022-11-06 22:00 3.91 µg/m3 63.72 µg/m3 2.48 µg/m3 18.99 °C N/A 1,005.26 mbar 1.05 m/s 334.47 Deg 0.09 µg/m3
2022-11-06 21:00 3.78 µg/m3 65.56 µg/m3 2.92 µg/m3 19.19 °C N/A 1,004.67 mbar 1.37 m/s 168.65 Deg 0.01 µg/m3
2022-11-06 20:00 4.09 µg/m3 65.45 µg/m3 3.31 µg/m3 19.09 °C N/A 1,004.03 mbar 1.31 m/s 347.7 Deg 0.04 µg/m3
2022-11-06 19:00 4.15 µg/m3 67.1 µg/m3 3.88 µg/m3 19.03 °C N/A 1,003.24 mbar 1.69 m/s 342.1 Deg 0.12 µg/m3
2022-11-06 18:00 3.82 µg/m3 69.31 µg/m3 3.52 µg/m3 18.98 °C N/A 1,002.53 mbar 1.93 m/s 340.77 Deg -0.05 µg/m3
2022-11-06 17:00 3.24 µg/m3 71.23 µg/m3 3.48 µg/m3 19.32 °C N/A 1,001.87 mbar 1.92 m/s 336.27 Deg 0.04 µg/m3
2022-11-06 16:00 3.17 µg/m3 74.2 µg/m3 4.41 µg/m3 20.13 °C N/A 1,001.35 mbar 2.42 m/s 345.2 Deg 0.23 µg/m3
2022-11-06 15:00 2.31 µg/m3 75.92 µg/m3 5.73 µg/m3 20.75 °C N/A 1,000.77 mbar 2.55 m/s 342.22 Deg 0.21 µg/m3
2022-11-06 14:00 2.58 µg/m3 76 µg/m3 4.47 µg/m3 20.9 °C N/A 1,000.38 mbar 2.9 m/s 338.95 Deg 0.33 µg/m3
2022-11-06 13:00 2.95 µg/m3 75.01 µg/m3 4.26 µg/m3 20.95 °C N/A 1,000.60 mbar 3.2 m/s 336.92 Deg 0.42 µg/m3
2022-11-06 12:00 2.79 µg/m3 75.45 µg/m3 4.18 µg/m3 20.78 °C N/A 1,000.54 mbar 3.03 m/s 260.22 Deg 0.31 µg/m3
2022-11-06 11:00 2.97 µg/m3 74.83 µg/m3 0.86 µg/m3 20.55 °C N/A 1,000.47 mbar 3.01 m/s 335.75 Deg 0.41 µg/m3
2022-11-06 10:00 2.04 µg/m3 73.58 µg/m3 -0.22 µg/m3 20.24 °C N/A 1,000.28 mbar 2.66 m/s 262.63 Deg 0.37 µg/m3
2022-11-06 09:00 -0.39 µg/m3 73.28 µg/m3 0.86 µg/m3 19.58 °C N/A 999.86 mbar 2.72 m/s 343.07 Deg 0.01 µg/m3
2022-11-06 08:00 0.2 µg/m3 72.16 µg/m3 1.23 µg/m3 18.72 °C N/A 999.30 mbar 2.35 m/s 340.88 Deg 0.27 µg/m3
2022-11-06 07:00 -0.73 µg/m3 73.42 µg/m3 0.65 µg/m3 18.24 °C N/A 998.32 mbar 2.73 m/s 261.43 Deg 0.11 µg/m3
2022-11-06 06:00 -0.87 µg/m3 72.32 µg/m3 0.02 µg/m3 18.01 °C N/A 997.85 mbar 2.1 m/s 344.22 Deg 0.05 µg/m3
2022-11-06 05:00 -0.56 µg/m3 73.6 µg/m3 -1.41 µg/m3 17.82 °C N/A 997.35 mbar 1.96 m/s 336.75 Deg -0.02 µg/m3
2022-11-06 04:00 -1.06 µg/m3 80.18 µg/m3 -0.43 µg/m3 17.54 °C N/A 997.13 mbar 1.73 m/s 346.9 Deg -0.05 µg/m3
2022-11-06 03:00 -0.15 µg/m3 79.99 µg/m3 0.86 µg/m3 17.51 °C N/A 996.85 mbar 1.95 m/s 324.3 Deg 0.08 µg/m3
2022-11-06 02:00 -0.94 µg/m3 78.91 µg/m3 -0.83 µg/m3 17.53 °C N/A 996.77 mbar 1.79 m/s 334.28 Deg 0.07 µg/m3
2022-11-06 01:00 -0.91 µg/m3 82.56 µg/m3 -1.56 µg/m3 17.26 °C N/A 996.49 mbar 1.6 m/s 339.91 Deg 0.12 µg/m3
2022-11-06 00:00 -0.99 µg/m3 81.52 µg/m3 -1.19 µg/m3 17.27 °C N/A 996.76 mbar 2.01 m/s 258.2 Deg -0.04 µg/m3
2022-11-05 23:00 -1.26 µg/m3 82.47 µg/m3 -1.26 µg/m3 17.06 °C N/A 996.54 mbar 2.1 m/s 259.98 Deg 0.07 µg/m3
2022-11-05 22:00 -1.06 µg/m3 82.49 µg/m3 -0.11 µg/m3 17.21 °C N/A 996.04 mbar 1.23 m/s 322.93 Deg 0.08 µg/m3
2022-11-05 21:00 0.46 µg/m3 76.35 µg/m3 0.1 µg/m3 16.33 °C N/A 995.77 mbar 0.99 m/s 317.62 Deg 0.16 µg/m3
2022-11-05 20:00 0.22 µg/m3 79.61 µg/m3 -1.75 µg/m3 15.58 °C N/A 995.52 mbar 1.16 m/s 306.36 Deg 0.03 µg/m3
2022-11-05 19:00 2.23 µg/m3 73.29 µg/m3 -3.23 µg/m3 15.31 °C N/A 995.24 mbar 1.25 m/s 329.87 Deg 0.34 µg/m3
2022-11-05 18:00 2.06 µg/m3 72.5 µg/m3 -2.89 µg/m3 15.22 °C N/A 994.90 mbar 1.12 m/s 329.14 Deg 0.11 µg/m3
2022-11-05 17:00 0.78 µg/m3 74.52 µg/m3 -1.22 µg/m3 14.54 °C N/A 994.78 mbar 1.81 m/s 324.95 Deg 0.17 µg/m3
2022-11-05 16:00 -0.22 µg/m3 76.9 µg/m3 2.39 µg/m3 16.23 °C N/A 994.50 mbar 2.72 m/s 315.93 Deg 0.01 µg/m3
2022-11-05 15:00 0.31 µg/m3 82.27 µg/m3 -0.71 µg/m3 18.94 °C N/A 994.40 mbar 3.76 m/s 305.17 Deg 0.27 µg/m3
2022-11-05 14:00 0.97 µg/m3 81.14 µg/m3 3.26 µg/m3 18.2 °C N/A 995.20 mbar 3.19 m/s 310.35 Deg 0.5 µg/m3
2022-11-05 13:00 1.96 µg/m3 77.21 µg/m3 4.54 µg/m3 18.04 °C N/A 996.07 mbar 2.74 m/s 308.22 Deg 0.64 µg/m3
2022-11-05 12:00 3.75 µg/m3 74.61 µg/m3 3.6 µg/m3 19.87 °C N/A 996.26 mbar 2.88 m/s 303.31 Deg 1.02 µg/m3
2022-11-05 11:00 2.36 µg/m3 77.1 µg/m3 0.36 µg/m3 19.73 °C N/A 997.00 mbar 2.27 m/s 318.3 Deg 0.84 µg/m3
2022-11-05 10:00 1.77 µg/m3 79 µg/m3 -0.45 µg/m3 18.36 °C N/A 997.09 mbar 2.38 m/s 250.78 Deg 0.62 µg/m3
2022-11-05 09:00 10.49 µg/m3 64.98 µg/m3 -0.32 µg/m3 16.86 °C N/A 996.86 mbar 1.4 m/s 311.23 Deg 1.62 µg/m3
2022-11-05 08:00 7.05 µg/m3 71.65 µg/m3 -0.24 µg/m3 16.61 °C N/A 996.81 mbar 2.38 m/s 297.9 Deg 0.37 µg/m3
2022-11-05 07:00 4.57 µg/m3 73.63 µg/m3 1.76 µg/m3 15.85 °C N/A 996.77 mbar 1.55 m/s 287.97 Deg 0.27 µg/m3
2022-11-05 06:00 -0.84 µg/m3 83.82 µg/m3 -0.39 µg/m3 17.34 °C N/A 997.56 mbar 2.34 m/s 319.68 Deg 0.02 µg/m3
2022-11-05 05:00 -1.04 µg/m3 80.92 µg/m3 -0.56 µg/m3 18.88 °C N/A 996.48 mbar 1.71 m/s 320.97 Deg -0.02 µg/m3
2022-11-05 04:00 1.42 µg/m3 64.33 µg/m3 1.8 µg/m3 18.64 °C N/A 995.77 mbar 1.31 m/s 313.39 Deg 0.01 µg/m3
2022-11-05 03:00 6.52 µg/m3 53.97 µg/m3 6.38 µg/m3 18.41 °C N/A 996.60 mbar 0.8 m/s 324.16 Deg 0.15 µg/m3
2022-11-05 02:00 0.25 µg/m3 70 µg/m3 8 µg/m3 19.96 °C N/A 996.63 mbar 1.66 m/s 328.93 Deg -0.01 µg/m3
2022-11-05 01:00 -0.15 µg/m3 81.3 µg/m3 7.72 µg/m3 23.33 °C N/A 996.71 mbar 3.26 m/s 249.08 Deg 0.19 µg/m3
2022-11-05 00:00 -0.16 µg/m3 84.59 µg/m3 8.1 µg/m3 23.05 °C N/A 997.85 mbar 2.82 m/s 243.55 Deg 0.09 µg/m3
2022-11-04 23:00 -0.61 µg/m3 86.34 µg/m3 6.23 µg/m3 22.81 °C N/A 998.61 mbar 2.82 m/s 233 Deg 0.02 µg/m3
2022-11-04 22:00 -0.34 µg/m3 86.65 µg/m3 7.02 µg/m3 22.83 °C N/A 998.96 mbar 3.13 m/s 235.8 Deg 0.13 µg/m3
2022-11-04 21:00 0.97 µg/m3 86.34 µg/m3 8.02 µg/m3 22.85 °C N/A 999.05 mbar 3.2 m/s 239.47 Deg 0.26 µg/m3
2022-11-04 20:00 3.03 µg/m3 83.95 µg/m3 8.06 µg/m3 22.65 °C N/A 999.33 mbar 2.87 m/s 238.97 Deg 0.5 µg/m3
2022-11-04 19:00 5.06 µg/m3 93.2 µg/m3 8.78 µg/m3 22.33 °C N/A 999.61 mbar 2.84 m/s 222.97 Deg 0.81 µg/m3
2022-11-04 18:00 5.73 µg/m3 98.56 µg/m3 8.46 µg/m3 22.23 °C N/A 1,000.13 mbar 2.63 m/s 228.2 Deg 0.66 µg/m3
2022-11-04 17:00 5.63 µg/m3 101.91 µg/m3 8.53 µg/m3 22.72 °C N/A 1,000.38 mbar 2.95 m/s 239.23 Deg 0.62 µg/m3
2022-11-04 16:00 6.18 µg/m3 101.25 µg/m3 10.84 µg/m3 23.49 °C N/A 1,000.87 mbar 2.98 m/s 225.47 Deg 1.01 µg/m3
2022-11-04 15:00 7.21 µg/m3 89.59 µg/m3 8.59 µg/m3 23.99 °C N/A 1,001.51 mbar 3.41 m/s 243.77 Deg 1.61 µg/m3
2022-11-04 14:00 5.13 µg/m3 83.07 µg/m3 8.68 µg/m3 24.33 °C N/A 1,002.12 mbar 3.29 m/s 244.78 Deg 1.65 µg/m3
2022-11-04 13:00 4.86 µg/m3 80.26 µg/m3 9.48 µg/m3 24.4 °C N/A 1,002.87 mbar 3.15 m/s 248.45 Deg 1.68 µg/m3
2022-11-04 12:00 4.68 µg/m3 77.26 µg/m3 8.99 µg/m3 24.36 °C N/A 1,004.02 mbar 2.89 m/s 252.73 Deg 1.6 µg/m3
2022-11-04 11:00 5.56 µg/m3 71.12 µg/m3 7.57 µg/m3 24.09 °C N/A 1,004.82 mbar 2.31 m/s 246.98 Deg 2.23 µg/m3
2022-11-04 10:00 4.9 µg/m3 68.5 µg/m3 8.12 µg/m3 23.41 °C N/A 1,005.30 mbar 2.7 m/s 247.1 Deg 1.71 µg/m3
2022-11-04 09:00 9.54 µg/m3 65.32 µg/m3 8.19 µg/m3 22.97 °C N/A 1,005.58 mbar 1.71 m/s 253.97 Deg 2.06 µg/m3
2022-11-04 08:00 22.79 µg/m3 52.29 µg/m3 7.15 µg/m3 21.59 °C N/A 1,005.59 mbar 1.54 m/s 259.63 Deg 3.56 µg/m3
2022-11-04 07:00 25.55 µg/m3 43.85 µg/m3 5.36 µg/m3 20.33 °C N/A 1,005.64 mbar 1.07 m/s 261.77 Deg 2.01 µg/m3
2022-11-04 06:00 6.22 µg/m3 57.93 µg/m3 5.19 µg/m3 19.9 °C N/A 1,005.76 mbar 0.9 m/s 276.65 Deg -0.03 µg/m3
2022-11-04 05:00 0.99 µg/m3 61.35 µg/m3 4.66 µg/m3 19.8 °C N/A 1,005.77 mbar 0.84 m/s 286.34 Deg -0.1 µg/m3
2022-11-04 04:00 0.04 µg/m3 62.99 µg/m3 4.07 µg/m3 19.52 °C N/A 1,005.77 mbar 0.82 m/s 272.37 Deg -0.19 µg/m3
2022-11-04 03:00 1.96 µg/m3 63.72 µg/m3 4.39 µg/m3 19.39 °C N/A 1,006.40 mbar 0.7 m/s 286.03 Deg 0.03 µg/m3
2022-11-04 02:00 1.34 µg/m3 65.07 µg/m3 6 µg/m3 19.47 °C N/A 1,006.92 mbar 0.78 m/s 289.83 Deg -0.05 µg/m3
2022-11-04 01:00 4.61 µg/m3 60.92 µg/m3 7.13 µg/m3 19.25 °C N/A 1,007.43 mbar 0.78 m/s 279.75 Deg -0.31 µg/m3
2022-11-04 00:00 10.58 µg/m3 51.14 µg/m3 9.06 µg/m3 19.02 °C N/A 1,007.75 mbar 0.61 m/s 291.74 Deg -0.39 µg/m3
2022-11-03 23:00 21.17 µg/m3 38.04 µg/m3 9.06 µg/m3 18.74 °C N/A 1,008.04 mbar 0.66 m/s 283.3 Deg -0.21 µg/m3
2022-11-03 22:00 30.1 µg/m3 29.2 µg/m3 10.78 µg/m3 19.09 °C N/A 1,008.29 mbar 0.76 m/s 281.4 Deg 0.52 µg/m3
2022-11-03 21:00 28.71 µg/m3 31.57 µg/m3 11.8 µg/m3 19.55 °C N/A 1,008.28 mbar 0.51 m/s 283.22 Deg 1.58 µg/m3
2022-11-03 20:00 21.68 µg/m3 41.97 µg/m3 10.14 µg/m3 20.12 °C N/A 1,008.25 mbar 0.5 m/s 282.8 Deg 0.11 µg/m3
2022-11-03 19:00 16.86 µg/m3 50.53 µg/m3 9.93 µg/m3 20.76 °C N/A 1,008.31 mbar 0.64 m/s 284.59 Deg -0.09 µg/m3
2022-11-03 18:00 12.39 µg/m3 60.43 µg/m3 8.65 µg/m3 21.46 °C N/A 1,008.13 mbar 0.76 m/s 294.68 Deg 0.03 µg/m3
2022-11-03 17:00 4.1 µg/m3 73.22 µg/m3 7.74 µg/m3 22.48 °C N/A 1,008.17 mbar 0.94 m/s 311.74 Deg 0.13 µg/m3
2022-11-03 16:00 1.42 µg/m3 76.74 µg/m3 7.91 µg/m3 23.52 °C N/A 1,008.31 mbar 1.16 m/s 311.03 Deg 0.24 µg/m3
2022-11-03 15:00 2.23 µg/m3 74.82 µg/m3 6.3 µg/m3 24.07 °C N/A 1,008.40 mbar 1.36 m/s 326.76 Deg 0.72 µg/m3
2022-11-03 14:00 1.02 µg/m3 75.91 µg/m3 4.96 µg/m3 24.41 °C N/A 1,008.83 mbar 1.16 m/s 323.32 Deg 0.35 µg/m3
2022-11-03 13:00 2.07 µg/m3 74.71 µg/m3 6.49 µg/m3 24.33 °C N/A 1,009.50 mbar 1.36 m/s 327.8 Deg 0.75 µg/m3
2022-11-03 12:00 1.28 µg/m3 75.04 µg/m3 6.51 µg/m3 24.2 °C N/A 1,010.26 mbar 1.29 m/s 319.85 Deg 0.42 µg/m3
2022-11-03 11:00 1.33 µg/m3 75.29 µg/m3 7.53 µg/m3 23.74 °C N/A 1,010.87 mbar 1.18 m/s 315.74 Deg 0.4 µg/m3
2022-11-03 10:00 5.23 µg/m3 73.93 µg/m3 8.7 µg/m3 23.21 °C N/A 1,011.04 mbar 1.21 m/s 333.92 Deg 0.85 µg/m3
2022-11-03 09:00 13.55 µg/m3 58.24 µg/m3 19.52 µg/m3 22.19 °C N/A 1,011.06 mbar 0.62 m/s 313.61 Deg 1.29 µg/m3
2022-11-03 08:00 56.67 µg/m3 9.37 µg/m3 15.28 µg/m3 19.22 °C N/A 1,010.85 mbar 0.26 m/s 290.48 Deg 87.72 µg/m3
2022-11-03 07:00 48.23 µg/m3 5.09 µg/m3 8.87 µg/m3 17.22 °C N/A 1,010.53 mbar 0.45 m/s 277.23 Deg 47.34 µg/m3
2022-11-03 06:00 31.18 µg/m3 18.7 µg/m3 6.38 µg/m3 17.52 °C N/A 1,010.34 mbar 0.66 m/s 275.58 Deg 5.1 µg/m3
2022-11-03 05:00 10.95 µg/m3 35.58 µg/m3 6.04 µg/m3 17.35 °C N/A 1,010.35 mbar 0.56 m/s 293.17 Deg -0.19 µg/m3
2022-11-03 04:00 8.71 µg/m3 31.76 µg/m3 5.81 µg/m3 17.07 °C N/A 1,010.49 mbar 0.68 m/s 278.9 Deg -0.26 µg/m3
2022-11-03 03:00 5.96 µg/m3 40.39 µg/m3 5.41 µg/m3 17.44 °C N/A 1,010.83 mbar 0.64 m/s 283.84 Deg -0.09 µg/m3
2022-11-03 02:00 3.6 µg/m3 44.59 µg/m3 7.27 µg/m3 17.84 °C N/A 1,010.97 mbar 0.59 m/s 281.41 Deg -0.12 µg/m3
2022-11-03 01:00 15.85 µg/m3 33.31 µg/m3 8.7 µg/m3 17.88 °C N/A 1,011.03 mbar 0.45 m/s 277.15 Deg -0.26 µg/m3
2022-11-03 00:00 19.24 µg/m3 32.89 µg/m3 7.11 µg/m3 18.35 °C N/A 1,011.11 mbar 0.38 m/s 279.8 Deg -0.1 µg/m3
2022-11-02 23:00 11.72 µg/m3 49.74 µg/m3 6.3 µg/m3 19.1 °C N/A 1,011.13 mbar 0.54 m/s 278.85 Deg 0.04 µg/m3
2022-11-02 22:00 4.33 µg/m3 61.4 µg/m3 6.62 µg/m3 19.45 °C N/A 1,011.04 mbar 0.39 m/s 303.02 Deg -0.09 µg/m3
2022-11-02 21:00 3.75 µg/m3 63.46 µg/m3 6.49 µg/m3 19.96 °C N/A 1,011.01 mbar 0.43 m/s 333.46 Deg -0.03 µg/m3
2022-11-02 20:00 3.03 µg/m3 65.63 µg/m3 7.42 µg/m3 20.28 °C N/A 1,010.92 mbar 0.47 m/s 324.95 Deg -0.14 µg/m3
2022-11-02 19:00 5.27 µg/m3 64.73 µg/m3 7.89 µg/m3 20.59 °C N/A 1,010.70 mbar 0.51 m/s 329.99 Deg -0.02 µg/m3
2022-11-02 18:00 10.34 µg/m3 60.85 µg/m3 7.49 µg/m3 21.27 °C N/A 1,010.42 mbar 0.66 m/s 325.77 Deg 0.24 µg/m3
2022-11-02 17:00 10.92 µg/m3 69.42 µg/m3 7.34 µg/m3 22.68 °C N/A 1,010.22 mbar 1.02 m/s 337.88 Deg 0.9 µg/m3
2022-11-02 16:00 2.54 µg/m3 76.73 µg/m3 7.02 µg/m3 23.89 °C N/A 1,010.23 mbar 1.08 m/s 323.8 Deg 0.43 µg/m3
2022-11-02 15:00 1.5 µg/m3 77.4 µg/m3 7.93 µg/m3 24.27 °C N/A 1,010.30 mbar 1.2 m/s 324.18 Deg 0.49 µg/m3
2022-11-02 14:00 0.92 µg/m3 81 µg/m3 9.04 µg/m3 24.52 °C N/A 1,010.66 mbar 1.27 m/s 322.47 Deg 0.39 µg/m3
2022-11-02 13:00 1.35 µg/m3 82.49 µg/m3 7.95 µg/m3 24.48 °C N/A 1,011.23 mbar 1.56 m/s 249.48 Deg 0.35 µg/m3
2022-11-02 12:00 4.49 µg/m3 77.68 µg/m3 8.85 µg/m3 23.44 °C N/A 1,011.83 mbar 1.67 m/s 185.9 Deg 0.65 µg/m3
2022-11-02 11:00 4.76 µg/m3 73.75 µg/m3 10.18 µg/m3 23.91 °C N/A 1,012.13 mbar 1.52 m/s 104.25 Deg 0.97 µg/m3
2022-11-02 10:00 6.76 µg/m3 68.54 µg/m3 10.99 µg/m3 23.43 °C N/A 1,012.24 mbar 1.16 m/s 178.42 Deg 1.3 µg/m3
2022-11-02 09:00 14.96 µg/m3 54.14 µg/m3 13.45 µg/m3 22.45 °C N/A 1,012.34 mbar 0.9 m/s 339.97 Deg 2.49 µg/m3
2022-11-02 08:00 42.47 µg/m3 19.32 µg/m3 12.24 µg/m3 20.02 °C N/A 1,012.05 mbar 0.4 m/s 291.88 Deg 17.91 µg/m3
2022-11-02 07:00 48.93 µg/m3 7.43 µg/m3 8.97 µg/m3 18.35 °C N/A 1,011.60 mbar 0.53 m/s 258.71 Deg 25.54 µg/m3
2022-11-02 06:00 12.64 µg/m3 38.41 µg/m3 8.48 µg/m3 18.22 °C N/A 1,011.30 mbar 0.35 m/s 297.33 Deg -0.14 µg/m3
2022-11-02 05:00 6.88 µg/m3 35.08 µg/m3 7.72 µg/m3 17.99 °C N/A 1,011.06 mbar 0.36 m/s 295.98 Deg -0.42 µg/m3
2022-11-02 04:00 1.2 µg/m3 53.47 µg/m3 6.34 µg/m3 18.45 °C N/A 1,011.05 mbar 0.23 m/s 296.24 Deg -0.24 µg/m3
2022-11-02 03:00 2.73 µg/m3 56.66 µg/m3 6.23 µg/m3 18.77 °C N/A 1,011.32 mbar 0.25 m/s 308.98 Deg -0.08 µg/m3
2022-11-02 02:00 2.22 µg/m3 62.86 µg/m3 7.02 µg/m3 19.24 °C N/A 1,011.64 mbar 0.29 m/s 310.47 Deg 0.05 µg/m3
2022-11-02 01:00 5.51 µg/m3 60.58 µg/m3 7.89 µg/m3 19.58 °C N/A 1,011.74 mbar 0.37 m/s 312.29 Deg -0.04 µg/m3
2022-11-02 00:00 4.66 µg/m3 63.12 µg/m3 7.02 µg/m3 19.73 °C N/A 1,011.98 mbar 0.45 m/s 327.31 Deg -0.18 µg/m3
2022-11-01 23:00 1.06 µg/m3 68.58 µg/m3 5.96 µg/m3 19.97 °C N/A 1,012.11 mbar 0.6 m/s 251.63 Deg -0.14 µg/m3
2022-11-01 22:00 3.06 µg/m3 67.97 µg/m3 7.83 µg/m3 20.15 °C N/A 1,012.17 mbar 0.88 m/s 259.4 Deg -0.19 µg/m3
2022-11-01 21:00 9.11 µg/m3 63.65 µg/m3 11.27 µg/m3 20.17 °C N/A 1,012.11 mbar 0.54 m/s 327.8 Deg -0.1 µg/m3
2022-11-01 20:00 11.78 µg/m3 61.69 µg/m3 12.37 µg/m3 20.38 °C N/A 1,011.96 mbar 0.49 m/s 309.94 Deg -0.06 µg/m3
2022-11-01 19:00 20.85 µg/m3 53.49 µg/m3 10.97 µg/m3 20.71 °C N/A 1,011.58 mbar 0.77 m/s 344.4 Deg -0.3 µg/m3
2022-11-01 18:00 13.79 µg/m3 63.35 µg/m3 9.27 µg/m3 21.54 °C N/A 1,011.01 mbar 0.72 m/s 341.09 Deg -0.09 µg/m3
2022-11-01 17:00 3.95 µg/m3 81.17 µg/m3 9.12 µg/m3 22.59 °C N/A 1,010.55 mbar 1.28 m/s 94.27 Deg -0.04 µg/m3
2022-11-01 16:00 1.36 µg/m3 84.28 µg/m3 9.52 µg/m3 23.25 °C N/A 1,010.36 mbar 1.95 m/s 11.73 Deg 0.29 µg/m3
2022-11-01 15:00 0.78 µg/m3 92.61 µg/m3 10.01 µg/m3 23.58 °C N/A 1,010.33 mbar 2.28 m/s 17.43 Deg 0.29 µg/m3
2022-11-01 14:00 1.76 µg/m3 88.22 µg/m3 8.61 µg/m3 23.84 °C N/A 1,010.48 mbar 2.51 m/s 20.7 Deg 0.48 µg/m3
2022-11-01 13:00 2.67 µg/m3 92.85 µg/m3 9.12 µg/m3 23.96 °C N/A 1,010.89 mbar 2.59 m/s 22.3 Deg 0.61 µg/m3
2022-11-01 12:00 4.13 µg/m3 88.53 µg/m3 8.82 µg/m3 24.18 °C N/A 1,011.30 mbar 2.37 m/s 21.88 Deg 0.79 µg/m3
2022-11-01 11:00 3.67 µg/m3 85.85 µg/m3 8.23 µg/m3 23.96 °C N/A 1,011.66 mbar 1.8 m/s 271.27 Deg 0.67 µg/m3
2022-11-01 10:00 6.23 µg/m3 78.86 µg/m3 10.14 µg/m3 23.33 °C N/A 1,011.63 mbar 1.48 m/s 185.63 Deg 0.89 µg/m3
2022-11-01 09:00 17.13 µg/m3 63.86 µg/m3 10.06 µg/m3 22.41 °C N/A 1,011.50 mbar 1.15 m/s 266.75 Deg 3 µg/m3
2022-11-01 08:00 29.28 µg/m3 44.34 µg/m3 8.72 µg/m3 20.57 °C N/A 1,011.19 mbar 0.79 m/s 346.97 Deg 2.83 µg/m3
2022-11-01 07:00 16.9 µg/m3 53.62 µg/m3 6.83 µg/m3 18.92 °C N/A 1,010.83 mbar 0.47 m/s 318.16 Deg 0.1 µg/m3
2022-11-01 06:00 3.99 µg/m3 67.72 µg/m3 5.36 µg/m3 18.98 °C N/A 1,010.47 mbar 0.49 m/s 311.78 Deg -0.11 µg/m3
2022-11-01 05:00 0.73 µg/m3 73.4 µg/m3 6.26 µg/m3 19.11 °C N/A 1,010.39 mbar 0.78 m/s 344.67 Deg -0.22 µg/m3
2022-11-01 04:00 0.2 µg/m3 74.46 µg/m3 6.66 µg/m3 19.13 °C N/A 1,010.25 mbar 0.62 m/s 336.1 Deg -0.34 µg/m3
2022-11-01 03:00 3 µg/m3 73.41 µg/m3 5.83 µg/m3 19.22 °C N/A 1,010.18 mbar 0.98 m/s 247.99 Deg -0.09 µg/m3
2022-11-01 02:00 1.52 µg/m3 72.09 µg/m3 6.07 µg/m3 19.28 °C N/A 1,010.29 mbar 0.7 m/s 252.39 Deg -0.09 µg/m3
2022-11-01 01:00 3.18 µg/m3 73 µg/m3 6.62 µg/m3 19.57 °C N/A 1,010.39 mbar 0.95 m/s 343.95 Deg -0.06 µg/m3
2022-11-01 00:00 4.03 µg/m3 73.23 µg/m3 7.13 µg/m3 19.66 °C N/A 1,010.53 mbar 0.92 m/s 339.6 Deg -0.13 µg/m3
2022-10-31 23:00 1.21 µg/m3 74.82 µg/m3 7.57 µg/m3 19.61 °C N/A 1,010.60 mbar 0.63 m/s 337.94 Deg -0.03 µg/m3
2022-10-31 22:00 2.95 µg/m3 75.28 µg/m3 7.3 µg/m3 19.73 °C N/A 1,010.55 mbar 0.87 m/s 343.71 Deg -0.02 µg/m3
2022-10-31 21:00 8.33 µg/m3 68.2 µg/m3 6.72 µg/m3 19.66 °C N/A 1,010.40 mbar 0.64 m/s 335.89 Deg -0.08 µg/m3
2022-10-31 20:00 10.34 µg/m3 65.12 µg/m3 6.38 µg/m3 19.68 °C N/A 1,010.40 mbar 0.46 m/s 310.62 Deg -0.16 µg/m3
2022-10-31 19:00 15.86 µg/m3 61.97 µg/m3 8.04 µg/m3 20.14 °C N/A 1,010.21 mbar 0.5 m/s 317.31 Deg -0.19 µg/m3
2022-10-31 18:00 18.67 µg/m3 68.06 µg/m3 8.99 µg/m3 21.01 °C N/A 1,009.67 mbar 0.51 m/s 312.53 Deg 1.05 µg/m3
2022-10-31 17:00 7.29 µg/m3 87.75 µg/m3 9.82 µg/m3 22.24 °C N/A 1,009.28 mbar 1.54 m/s 13.03 Deg 0.23 µg/m3
2022-10-31 16:00 3.95 µg/m3 95.87 µg/m3 9.23 µg/m3 22.63 °C N/A 1,009.17 mbar 1.83 m/s 20.4 Deg 0.28 µg/m3
2022-10-31 15:00 3.66 µg/m3 97.16 µg/m3 7.42 µg/m3 23.64 °C N/A 1,009.04 mbar 2.06 m/s 30.73 Deg 0.47 µg/m3
2022-10-31 14:00 3.59 µg/m3 94.88 µg/m3 7.81 µg/m3 23.58 °C N/A 1,009.17 mbar 2.02 m/s 19.17 Deg 0.62 µg/m3
2022-10-31 13:00 3.24 µg/m3 93.23 µg/m3 9.25 µg/m3 23.27 °C N/A 1,009.59 mbar 1.79 m/s 17.48 Deg 0.26 µg/m3
2022-10-31 12:00 3.92 µg/m3 91.43 µg/m3 10.2 µg/m3 23.78 °C N/A 1,009.97 mbar 1.66 m/s 13.7 Deg 0.62 µg/m3
2022-10-31 11:00 2.6 µg/m3 90.21 µg/m3 10.01 µg/m3 23.4 °C N/A 1,010.29 mbar 1.87 m/s 19.45 Deg 0.37 µg/m3
2022-10-31 10:00 6.71 µg/m3 83.14 µg/m3 13.07 µg/m3 22.79 °C N/A 1,010.42 mbar 1.71 m/s 101.5 Deg 1.05 µg/m3
2022-10-31 09:00 15.72 µg/m3 68.06 µg/m3 22.85 µg/m3 22.58 °C N/A 1,010.14 mbar 0.78 m/s 174.17 Deg 1.35 µg/m3
2022-10-31 08:00 56.74 µg/m3 17.04 µg/m3 17.42 µg/m3 20.61 °C N/A 1,009.88 mbar 0.32 m/s 236.18 Deg 19.64 µg/m3
2022-10-31 07:00 46.68 µg/m3 17 µg/m3 11.52 µg/m3 19.22 °C N/A 1,009.52 mbar 0.35 m/s 308.46 Deg 9.77 µg/m3
2022-10-31 06:00 12.4 µg/m3 58.94 µg/m3 10.99 µg/m3 19.78 °C N/A 1,009.15 mbar 0.39 m/s 107.56 Deg -0.79 µg/m3
2022-10-31 05:00 24.4 µg/m3 29.48 µg/m3 10.01 µg/m3 19.22 °C N/A 1,008.95 mbar 0.25 m/s 265.04 Deg -0.5 µg/m3
2022-10-31 04:00 13.48 µg/m3 39.4 µg/m3 8.36 µg/m3 18.83 °C N/A 1,008.97 mbar 0.21 m/s 238.83 Deg -0.55 µg/m3
2022-10-31 03:00 8.75 µg/m3 57.32 µg/m3 7.74 µg/m3 18.55 °C N/A 1,009.20 mbar 0.23 m/s 270.45 Deg -0.15 µg/m3
2022-10-31 02:00 0.25 µg/m3 78.57 µg/m3 7.3 µg/m3 18.78 °C N/A 1,009.42 mbar 0.28 m/s 291.03 Deg 0 µg/m3
2022-10-31 01:00 1.84 µg/m3 77.61 µg/m3 10.54 µg/m3 18.99 °C N/A 1,009.60 mbar 0.46 m/s 303.12 Deg -0.38 µg/m3
2022-10-31 00:00 14.44 µg/m3 56.08 µg/m3 14.41 µg/m3 18.51 °C N/A 1,009.75 mbar 0.28 m/s 280.99 Deg -0.3 µg/m3
2022-10-30 23:00 23.84 µg/m3 44.97 µg/m3 13.03 µg/m3 19.07 °C N/A 1,009.85 mbar 0.35 m/s 276.07 Deg -0.33 µg/m3
2022-10-30 22:00 17.48 µg/m3 61.36 µg/m3 11.24 µg/m3 20.12 °C N/A 1,009.87 mbar 0.33 m/s 283.42 Deg 0.05 µg/m3
2022-10-30 21:00 8.41 µg/m3 83.75 µg/m3 11.03 µg/m3 20.92 °C N/A 1,009.75 mbar 0.38 m/s 330.35 Deg 0.04 µg/m3
2022-10-30 20:00 8.93 µg/m3 84 µg/m3 15.21 µg/m3 20.99 °C N/A 1,009.60 mbar 0.36 m/s 153.84 Deg -0.24 µg/m3
2022-10-30 19:00 16.2 µg/m3 75.05 µg/m3 10.42 µg/m3 20.96 °C N/A 1,009.24 mbar 0.58 m/s 269.44 Deg 0 µg/m3
2022-10-30 18:00 8.93 µg/m3 86.76 µg/m3 7.78 µg/m3 21.33 °C N/A 1,008.75 mbar 0.74 m/s 92.12 Deg 0.14 µg/m3
2022-10-30 17:00 3.02 µg/m3 94.46 µg/m3 7.4 µg/m3 22.13 °C N/A 1,008.57 mbar 1.25 m/s 22.57 Deg 0.1 µg/m3
2022-10-30 16:00 1.11 µg/m3 97.2 µg/m3 6.32 µg/m3 22.82 °C N/A 1,008.52 mbar 1.46 m/s 183.12 Deg 0.16 µg/m3
2022-10-30 15:00 0.57 µg/m3 95.32 µg/m3 7.06 µg/m3 23.16 °C N/A 1,008.71 mbar 1.76 m/s 98.77 Deg 0.34 µg/m3
2022-10-30 14:00 1.19 µg/m3 96.91 µg/m3 7.42 µg/m3 23.08 °C N/A 1,008.80 mbar 1.99 m/s 247.53 Deg 0.44 µg/m3
2022-10-30 13:00 0.16 µg/m3 93.65 µg/m3 8 µg/m3 22.83 °C N/A 1,009.28 mbar 2.17 m/s 113.05 Deg 0.33 µg/m3
2022-10-30 12:00 1.8 µg/m3 93.9 µg/m3 8.95 µg/m3 22.95 °C N/A 1,009.67 mbar 1.92 m/s 235.2 Deg 0.45 µg/m3
2022-10-30 11:00 3.27 µg/m3 91.5 µg/m3 8.95 µg/m3 22.86 °C N/A 1,009.88 mbar 1.92 m/s 229.12 Deg 0.71 µg/m3
2022-10-30 10:00 4.6 µg/m3 85.98 µg/m3 8.36 µg/m3 22.41 °C N/A 1,009.84 mbar 1.88 m/s 233 Deg 0.93 µg/m3
2022-10-30 09:00 4.05 µg/m3 83.8 µg/m3 9.02 µg/m3 21.79 °C N/A 1,009.72 mbar 1.6 m/s 210.42 Deg 0.49 µg/m3
2022-10-30 08:00 6.61 µg/m3 76.26 µg/m3 8.02 µg/m3 20.82 °C N/A 1,009.53 mbar 0.74 m/s 97.81 Deg 0.25 µg/m3
2022-10-30 07:00 5.24 µg/m3 75.67 µg/m3 7.91 µg/m3 19.56 °C N/A 1,009.45 mbar 0.47 m/s 29.98 Deg 0.13 µg/m3
2022-10-30 06:00 4.21 µg/m3 76.03 µg/m3 7.19 µg/m3 19.9 °C N/A 1,009.41 mbar 0.56 m/s 243.1 Deg -0.07 µg/m3
2022-10-30 05:00 1.3 µg/m3 83.61 µg/m3 7.81 µg/m3 20.06 °C N/A 1,009.34 mbar 1.06 m/s 108.05 Deg -0.07 µg/m3
2022-10-30 04:00 1.06 µg/m3 81.3 µg/m3 7.4 µg/m3 19.93 °C N/A 1,009.30 mbar 0.99 m/s 184.45 Deg -0.01 µg/m3
2022-10-30 03:00 2.16 µg/m3 81.7 µg/m3 6.91 µg/m3 20.03 °C N/A 1,009.53 mbar 0.84 m/s 105.59 Deg 0.01 µg/m3
2022-10-30 02:00 0.92 µg/m3 81.92 µg/m3 7.27 µg/m3 20.18 °C N/A 1,009.93 mbar 0.93 m/s 37.65 Deg -0.07 µg/m3
2022-10-30 01:00 1.3 µg/m3 81.48 µg/m3 7.61 µg/m3 20.21 °C N/A 1,010.28 mbar 0.75 m/s 191.42 Deg -0.14 µg/m3
2022-10-30 00:00 3.49 µg/m3 80.92 µg/m3 8.63 µg/m3 20.46 °C N/A 1,010.42 mbar 1.04 m/s 104.9 Deg -0.14 µg/m3
2022-10-29 23:00 8.82 µg/m3 73.57 µg/m3 8.89 µg/m3 20.62 °C N/A 1,010.50 mbar 1.11 m/s 255.46 Deg 0.02 µg/m3
2022-10-29 22:00 5.87 µg/m3 77.64 µg/m3 10.39 µg/m3 20.74 °C N/A 1,010.51 mbar 0.97 m/s 233.18 Deg -0.09 µg/m3
2022-10-29 21:00 5.74 µg/m3 80.17 µg/m3 10.84 µg/m3 20.9 °C N/A 1,010.39 mbar 1.28 m/s 215.52 Deg -0.04 µg/m3
2022-10-29 20:00 8.19 µg/m3 78.48 µg/m3 10.88 µg/m3 21.16 °C N/A 1,010.34 mbar 1.24 m/s 282.61 Deg -0.13 µg/m3
2022-10-29 19:00 7.93 µg/m3 83.73 µg/m3 11.8 µg/m3 21.35 °C N/A 1,010.10 mbar 1.41 m/s 303.78 Deg 0.01 µg/m3
2022-10-29 18:00 7.94 µg/m3 84.07 µg/m3 10.44 µg/m3 21.56 °C N/A 1,009.69 mbar 1.43 m/s 262.67 Deg 0.32 µg/m3
2022-10-29 17:00 3.98 µg/m3 88.59 µg/m3 9.31 µg/m3 22.16 °C N/A 1,009.50 mbar 1.91 m/s 224.43 Deg 0.34 µg/m3
2022-10-29 16:00 2.04 µg/m3 90.14 µg/m3 10.2 µg/m3 22.57 °C N/A 1,009.58 mbar 2.52 m/s 192.27 Deg 0.28 µg/m3
2022-10-29 15:00 2.26 µg/m3 90.54 µg/m3 8.27 µg/m3 22.93 °C N/A 1,009.78 mbar 2.41 m/s 288.8 Deg 0.47 µg/m3
2022-10-29 14:00 1.89 µg/m3 89.28 µg/m3 7.76 µg/m3 23.15 °C N/A 1,010.07 mbar 2.49 m/s 206.37 Deg 0.65 µg/m3
2022-10-29 13:00 3.57 µg/m3 88.07 µg/m3 8.1 µg/m3 23.01 °C N/A 1,010.65 mbar 2.82 m/s 164.68 Deg 1.19 µg/m3
2022-10-29 12:00 4.81 µg/m3 86.12 µg/m3 11.05 µg/m3 23.14 °C N/A 1,011.21 mbar 2.46 m/s 258.92 Deg 1.34 µg/m3
2022-10-29 11:00 7.53 µg/m3 81.46 µg/m3 11.31 µg/m3 22.79 °C N/A 1,011.52 mbar 2.4 m/s 264.1 Deg 1.95 µg/m3
2022-10-29 10:00 8.59 µg/m3 78.42 µg/m3 10.06 µg/m3 22.35 °C N/A 1,011.56 mbar 2.57 m/s 310.01 Deg 2.29 µg/m3
2022-10-29 09:00 10.74 µg/m3 75.92 µg/m3 10.42 µg/m3 21.75 °C N/A 1,011.43 mbar 2.27 m/s 307.32 Deg 1.65 µg/m3
2022-10-29 08:00 21.14 µg/m3 61.98 µg/m3 10.9 µg/m3 20.93 °C N/A 1,011.18 mbar 1.33 m/s 246.65 Deg 2.22 µg/m3
2022-10-29 07:00 18.26 µg/m3 63.09 µg/m3 9.84 µg/m3 20.33 °C N/A 1,010.90 mbar 1.11 m/s 166.08 Deg 0.67 µg/m3
2022-10-29 06:00 12.49 µg/m3 67.09 µg/m3 9.08 µg/m3 20.2 °C N/A 1,010.92 mbar 1.07 m/s 103.86 Deg 0.12 µg/m3
2022-10-29 05:00 6.98 µg/m3 67.78 µg/m3 8.12 µg/m3 19.96 °C N/A 1,010.95 mbar 0.75 m/s 162.45 Deg -0.2 µg/m3
2022-10-29 04:00 3.13 µg/m3 69.78 µg/m3 7.91 µg/m3 19.66 °C N/A 1,010.98 mbar 0.65 m/s 40.53 Deg -0.19 µg/m3
2022-10-29 03:00 4.18 µg/m3 72.75 µg/m3 8.57 µg/m3 19.81 °C N/A 1,011.50 mbar 0.61 m/s 31.57 Deg -0.2 µg/m3
2022-10-29 02:00 5.78 µg/m3 60.97 µg/m3 9.55 µg/m3 19.84 °C N/A 1,011.82 mbar 0.45 m/s 49.91 Deg -0.38 µg/m3
2022-10-29 01:00 14.77 µg/m3 42.21 µg/m3 9.86 µg/m3 19.89 °C N/A 1,012.10 mbar 0.46 m/s 43.54 Deg -0.45 µg/m3
2022-10-29 00:00 12.9 µg/m3 55.15 µg/m3 11.54 µg/m3 20.1 °C N/A 1,012.34 mbar 0.43 m/s 32.55 Deg -0.65 µg/m3
2022-10-28 23:00 20.89 µg/m3 39.83 µg/m3 15.09 µg/m3 20.09 °C N/A 1,012.52 mbar 0.47 m/s 106.04 Deg -0 µg/m3
2022-10-28 22:00 29.17 µg/m3 22.38 µg/m3 15.38 µg/m3 20.1 °C N/A 1,012.61 mbar 0.24 m/s 236.96 Deg -0.62 µg/m3
2022-10-28 21:00 31.53 µg/m3 30.5 µg/m3 13.05 µg/m3 20.61 °C N/A 1,012.49 mbar 0.32 m/s 252.5 Deg 0.66 µg/m3
2022-10-28 20:00 16.97 µg/m3 67.85 µg/m3 12.41 µg/m3 21.37 °C N/A 1,012.34 mbar 0.75 m/s 174.64 Deg -0.11 µg/m3
2022-10-28 19:00 N/A 75.42 µg/m3 12.43 µg/m3 21.64 °C N/A 1,012.13 mbar 1.32 m/s 144.02 Deg 0.37 µg/m3
2022-10-28 18:00 N/A 77.52 µg/m3 12.43 µg/m3 22.02 °C N/A 1,011.89 mbar 1.19 m/s 157.67 Deg 0.42 µg/m3
2022-10-28 17:00 N/A 86.68 µg/m3 11.29 µg/m3 22.83 °C N/A 1,011.77 mbar 1.52 m/s 163.03 Deg 0.74 µg/m3
2022-10-28 16:00 N/A 88.38 µg/m3 12.62 µg/m3 23.62 °C N/A 1,011.78 mbar 1.65 m/s 175.02 Deg 1.31 µg/m3
2022-10-28 15:00 N/A 89.3 µg/m3 14.34 µg/m3 24.01 °C N/A 1,011.78 mbar 1.97 m/s 215.02 Deg 1.59 µg/m3
2022-10-28 14:00 N/A 85.6 µg/m3 14.28 µg/m3 24.31 °C N/A 1,012.23 mbar 1.9 m/s 215.28 Deg 2.59 µg/m3
2022-10-28 13:00 N/A 89.84 µg/m3 13.68 µg/m3 24.45 °C N/A 1,012.84 mbar 1.62 m/s 251.82 Deg 1.52 µg/m3
2022-10-28 12:00 N/A 0 µg/m3 3.22 µg/m3 24.29 °C N/A 1,013.30 mbar 1.74 m/s 223.95 Deg 0 µg/m3
2022-10-28 11:00 N/A 0 µg/m3 -0.22 µg/m3 23.96 °C N/A 1,013.48 mbar 1.93 m/s 192.92 Deg 1.46 µg/m3
2022-10-28 10:00 N/A 65.57 µg/m3 24.49 µg/m3 23.53 °C N/A 1,013.36 mbar 1.97 m/s 154.82 Deg 4.33 µg/m3
2022-10-28 09:00 N/A 5.72 µg/m3 41 µg/m3 22.6 °C N/A 1,013.21 mbar 1.16 m/s 148.97 Deg 51.38 µg/m3
2022-10-28 08:00 N/A 2.72 µg/m3 27.91 µg/m3 20.05 °C N/A 1,012.88 mbar 0.48 m/s 220.3 Deg 85.43 µg/m3
2022-10-28 07:00 N/A 0.91 µg/m3 19.44 µg/m3 18.29 °C N/A 1,012.49 mbar 0.44 m/s 284.6 Deg 51.41 µg/m3
2022-10-28 06:00 N/A 7.36 µg/m3 15.19 µg/m3 18.56 °C N/A 1,012.43 mbar 0.45 m/s 280.29 Deg 7.83 µg/m3
2022-10-28 05:00 N/A 31.65 µg/m3 14.13 µg/m3 18.85 °C N/A 1,012.39 mbar 0.44 m/s 286.78 Deg -0.42 µg/m3
2022-10-28 04:00 N/A 35.06 µg/m3 16.17 µg/m3 18.86 °C N/A 1,012.39 mbar 0.34 m/s 287.84 Deg -0.65 µg/m3
2022-10-28 03:00 10.75 µg/m3 49.17 µg/m3 18.18 µg/m3 19.16 °C N/A 1,012.45 mbar 0.69 m/s 284.86 Deg -0.52 µg/m3
2022-10-28 02:00 28.18 µg/m3 26.02 µg/m3 16.59 µg/m3 18.78 °C N/A 1,012.75 mbar 0.49 m/s 278.45 Deg -0.63 µg/m3
2022-10-28 01:00 15.22 µg/m3 22.92 µg/m3 15.91 µg/m3 18.9 °C N/A 1,012.95 mbar 0.39 m/s 286.78 Deg -0.76 µg/m3
2022-10-28 00:00 22.69 µg/m3 18.12 µg/m3 15.79 µg/m3 19.53 °C N/A 1,013.01 mbar 0.33 m/s 292.55 Deg -0.65 µg/m3
2022-10-27 23:00 32.31 µg/m3 15.35 µg/m3 14.28 µg/m3 19.9 °C N/A 1,013.06 mbar 0.31 m/s 270.91 Deg 0.48 µg/m3
2022-10-27 22:00 31.47 µg/m3 15.1 µg/m3 15.06 µg/m3 20.22 °C N/A 1,013.06 mbar 0.38 m/s 276.88 Deg 0.66 µg/m3
2022-10-27 21:00 35.97 µg/m3 14.51 µg/m3 16.44 µg/m3 20.79 °C N/A 1,013.01 mbar 0.28 m/s 284.17 Deg -0.12 µg/m3
2022-10-27 20:00 47.43 µg/m3 9.2 µg/m3 14.85 µg/m3 21.56 °C N/A 1,012.80 mbar 0.32 m/s 264.74 Deg 4.03 µg/m3
2022-10-27 19:00 23.45 µg/m3 46.79 µg/m3 14.6 µg/m3 22.53 °C N/A 1,012.46 mbar 0.3 m/s 290.04 Deg -0.69 µg/m3
2022-10-27 18:00 24.46 µg/m3 60.57 µg/m3 12.5 µg/m3 23.44 °C N/A 1,012.00 mbar 0.46 m/s 246.45 Deg -0.69 µg/m3
2022-10-27 17:00 15.76 µg/m3 79.12 µg/m3 13.47 µg/m3 24.92 °C N/A 1,011.88 mbar 0.89 m/s 29.1 Deg -0.6 µg/m3
2022-10-27 16:00 13.17 µg/m3 84.2 µg/m3 14.36 µg/m3 26.12 °C N/A 1,011.77 mbar 1.24 m/s 21.75 Deg 0.15 µg/m3
2022-10-27 15:00 13.61 µg/m3 86.23 µg/m3 16 µg/m3 27.48 °C N/A 1,011.67 mbar 1.09 m/s 177.3 Deg 0.58 µg/m3
2022-10-27 14:00 16.48 µg/m3 79.58 µg/m3 16.51 µg/m3 27.72 °C N/A 1,011.98 mbar 1.17 m/s 106.47 Deg 1.44 µg/m3
2022-10-27 13:00 22.35 µg/m3 71.15 µg/m3 19.25 µg/m3 27.99 °C N/A 1,012.45 mbar 1.25 m/s 75.72 Deg 3.87 µg/m3
2022-10-27 12:00 41.28 µg/m3 54.75 µg/m3 23.79 µg/m3 28.39 °C N/A 1,012.91 mbar 1.15 m/s 198.77 Deg 10.15 µg/m3
2022-10-27 11:00 47.52 µg/m3 53.7 µg/m3 20.54 µg/m3 28.1 °C N/A 1,013.18 mbar 0.9 m/s 183.24 Deg 11.6 µg/m3
2022-10-27 10:00 50.4 µg/m3 47.6 µg/m3 42.11 µg/m3 27.29 °C N/A 1,013.03 mbar 0.53 m/s 157.54 Deg 13.49 µg/m3
2022-10-27 09:00 64.78 µg/m3 20.79 µg/m3 61.31 µg/m3 25.09 °C N/A 1,013.02 mbar 0.3 m/s 276.85 Deg 71.19 µg/m3
2022-10-27 08:00 75.03 µg/m3 2.1 µg/m3 38.67 µg/m3 19.62 °C N/A 1,012.74 mbar 0.4 m/s 297.96 Deg 160.51 µg/m3
2022-10-27 07:00 54.81 µg/m3 0.89 µg/m3 24.74 µg/m3 16.89 °C N/A 1,012.37 mbar 0.55 m/s 289.81 Deg 89.64 µg/m3
2022-10-27 06:00 37.16 µg/m3 0.59 µg/m3 20.18 µg/m3 18.51 °C N/A 1,012.14 mbar 0.42 m/s 285.09 Deg 34.25 µg/m3
2022-10-27 05:00 28.72 µg/m3 2.65 µg/m3 17.95 µg/m3 18.65 °C N/A 1,011.91 mbar 0.59 m/s 290.94 Deg 10.97 µg/m3
2022-10-27 04:00 15.24 µg/m3 19.51 µg/m3 14.6 µg/m3 18.77 °C N/A 1,011.82 mbar 0.46 m/s 290.18 Deg -0.53 µg/m3
2022-10-27 03:00 16.66 µg/m3 23.04 µg/m3 15.66 µg/m3 18.07 °C N/A 1,011.85 mbar 0.57 m/s 288.48 Deg 0.32 µg/m3
2022-10-27 02:00 13.29 µg/m3 19.68 µg/m3 14.11 µg/m3 18.76 °C N/A 1,011.70 mbar 0.35 m/s 286.64 Deg -0.55 µg/m3
2022-10-27 01:00 18.1 µg/m3 19.52 µg/m3 13.11 µg/m3 19.63 °C N/A 1,011.72 mbar 0.39 m/s 285.89 Deg -0.69 µg/m3
2022-10-27 00:00 17.72 µg/m3 29.37 µg/m3 13.79 µg/m3 20.21 °C N/A 1,011.87 mbar 0.45 m/s 294.47 Deg -0.98 µg/m3
2022-10-26 23:00 20.4 µg/m3 29.43 µg/m3 14.43 µg/m3 20.57 °C N/A 1,011.94 mbar 0.5 m/s 304.87 Deg -1 µg/m3
2022-10-26 22:00 34.98 µg/m3 16.68 µg/m3 14.75 µg/m3 20.64 °C N/A 1,011.70 mbar 0.41 m/s 290.99 Deg -0.28 µg/m3
2022-10-26 21:00 41.95 µg/m3 19.15 µg/m3 15.51 µg/m3 21.18 °C N/A 1,011.25 mbar 0.26 m/s 286.73 Deg 4.2 µg/m3
2022-10-26 20:00 46.58 µg/m3 24.29 µg/m3 15.11 µg/m3 21.87 °C N/A 1,010.78 mbar 0.47 m/s 300.09 Deg 1.94 µg/m3
2022-10-26 19:00 44.74 µg/m3 22.45 µg/m3 15.79 µg/m3 22.69 °C N/A 1,010.36 mbar 0.48 m/s 291.48 Deg -0.59 µg/m3
2022-10-26 18:00 31.06 µg/m3 49.39 µg/m3 13.15 µg/m3 24.24 °C N/A 1,009.85 mbar 0.36 m/s 307.62 Deg -0.38 µg/m3
2022-10-26 17:00 16.41 µg/m3 81.68 µg/m3 12.94 µg/m3 26.15 °C N/A 1,009.56 mbar 0.8 m/s 47.44 Deg 0.6 µg/m3
2022-10-26 16:00 15.33 µg/m3 80.58 µg/m3 13.45 µg/m3 27.35 °C N/A 1,009.37 mbar 1.18 m/s 31.82 Deg 1.27 µg/m3
2022-10-26 15:00 13.02 µg/m3 79.38 µg/m3 15 µg/m3 28.13 °C N/A 1,009.33 mbar 1.28 m/s 13.7 Deg 1.6 µg/m3
2022-10-26 14:00 16.78 µg/m3 73.01 µg/m3 14.15 µg/m3 28.01 °C N/A 1,009.49 mbar 1.33 m/s 23.24 Deg 3.19 µg/m3
2022-10-26 13:00 10.87 µg/m3 82.22 µg/m3 12.31 µg/m3 27.99 °C N/A 1,009.70 mbar 1.21 m/s 105.72 Deg 1.59 µg/m3
2022-10-26 12:00 9.48 µg/m3 79.03 µg/m3 11.2 µg/m3 27.55 °C N/A 1,010.07 mbar 0.99 m/s 99.98 Deg 1.62 µg/m3
2022-10-26 11:00 7.07 µg/m3 72.23 µg/m3 9.4 µg/m3 26.39 °C N/A 1,010.25 mbar 1.13 m/s 190.16 Deg 1.33 µg/m3

It is to be noted that the data is provisional and subject to quality assurance procedures. For validated data kindly refer your request to contact.air@era.org.mt